ECMWFFLT1_850_rhum_030.txt.gz
RH
99 99 101 98 91 88 91 94 90 85 89 94 97 94 90 85 80 72 69 76 86 93 97 93 85 81 82 88 95 99 100 100 100 100 100 100 100 99 99 98 97 93 88 84 80 74 67 61 57 57 55 51 47 45 41 36 34 31 25 21 19 19 21
100 100 100 100 98 96 97 100 100 96 95 94 92 90 88 86 82 76 70 69 74 85 95 99 94 85 80 86 96 100 100 100 100 100 100 100 100 100 99 99 100 98 96 93 88 83 78 73 69 65 61 56 51 48 44 39 37 36 29 22 20 20 23
101 100 100 100 100 98 97 98 100 100 99 97 92 88 86 84 81 78 76 72 69 74 87 99 100 91 82 85 94 99 99 100 100 100 100 100 100 100 100 99 99 99 99 99 95 91 88 83 79 76 74 70 63 56 50 44 42 42 34 26 23 22 22
100 100 101 101 100 99 96 96 97 100 101 99 95 92 91 89 87 86 84 81 74 71 80 93 97 90 84 86 92 97 99 100 100 100 100 100 100 99 100 100 99 98 98 100 100 97 94 90 86 83 82 82 75 65 55 47 44 44 39 31 26 23 20
99 100 100 99 100 100 96 92 92 93 95 95 93 92 90 87 85 85 85 85 79 72 78 90 94 89 87 90 92 95 99 99 100 101 100 100 101 100 100 100 100 98 98 99 99 99 98 95 91 87 84 83 78 70 59 49 45 45 43 37 31 25 20
99 100 101 98 99 100 97 92 89 86 85 84 82 82 80 76 72 69 74 84 84 76 77 88 96 97 96 94 91 91 97 99 99 100 100 100 100 100 100 100 100 100 99 99 97 97 98 97 93 89 87 84 80 75 67 57 49 47 46 43 37 30 23
93 94 95 93 93 96 97 93 88 83 81 79 77 75 73 72 66 59 66 83 88 80 76 81 89 97 100 99 93 86 86 94 100 100 99 101 100 100 100 100 100 100 100 100 98 95 96 96 94 90 87 85 83 79 73 64 56 52 50 46 39 33 26
79 78 79 82 84 86 87 86 83 80 77 75 74 72 69 66 60 55 64 83 92 88 83 79 79 88 99 102 95 85 79 86 97 100 99 100 100 100 100 100 100 100 100 100 99 96 95 94 94 91 89 87 84 79 74 67 59 55 54 51 43 35 26
76 71 66 67 72 75 77 77 75 73 72 69 67 64 61 59 54 54 65 82 93 91 86 80 74 78 93 97 93 91 89 89 95 100 99 99 100 100 100 100 100 100 100 100 100 99 98 97 95 93 91 89 85 80 75 68 61 56 53 51 47 38 28
90 83 73 65 63 65 69 71 70 69 66 65 65 62 60 55 51 55 69 82 89 88 85 84 79 75 83 90 91 97 99 93 93 99 100 99 100 100 100 100 100 100 100 100 100 100 100 100 99 97 93 90 87 83 78 71 65 59 53 48 45 39 34
99 97 92 85 75 65 62 66 68 64 61 64 67 65 61 56 52 60 74 82 89 91 88 89 90 85 82 85 89 97 101 97 94 98 100 100 100 100 100 100 100 100 100 100 100 100 100 100 98 97 95 92 89 86 82 76 70 63 56 50 44 40 38
100 100 100 99 96 83 68 60 58 59 65 72 73 69 67 65 63 69 78 82 88 97 96 94 96 94 89 86 84 88 97 101 97 95 97 100 100 99 100 100 100 100 100 100 100 100 100 98 96 94 94 93 90 88 84 78 72 66 62 57 50 46 44
100 100 100 100 101 97 86 75 70 74 82 87 87 86 87 86 83 81 84 85 89 97 100 98 98 97 94 91 88 88 94 99 98 96 95 97 100 101 100 100 100 100 100 100 100 100 99 96 94 93 92 90 90 88 84 78 72 68 64 59 56 52 50
100 100 101 100 100 100 98 93 87 84 85 88 89 91 95 98 95 90 88 89 92 97 100 100 100 99 97 96 96 97 97 98 98 99 97 96 97 99 100 100 100 99 100 100 99 100 100 98 97 95 92 91 90 88 85 81 76 70 63 56 54 54 54
100 100 100 100 100 100 99 99 96 93 93 95 94 93 95 99 99 96 93 92 94 98 100 100 99 100 99 99 99 99 100 100 99 97 95 93 94 97 100 100 100 100 100 101 101 100 100 100 100 99 97 95 94 90 87 83 79 74 67 59 56 56 59
100 100 100 100 100 100 97 95 98 100 99 96 94 95 98 99 98 99 99 98 98 100 101 101 101 101 99 98 99 98 99 100 100 97 92 90 93 97 98 96 95 96 95 95 97 99 100 100 101 100 100 99 97 94 91 86 79 73 68 63 61 62 65
100 100 100 100 100 100 96 92 93 97 97 93 91 93 95 94 92 92 93 92 93 94 92 92 94 95 96 96 98 99 99 100 101 98 93 89 88 90 94 96 96 96 94 91 93 97 100 100 100 100 100 100 99 97 95 90 85 79 73 70 68 69 73
100 100 99 100 100 100 99 96 95 98 100 97 94 93 93 93 90 87 85 83 83 84 83 83 83 84 87 88 89 94 97 99 99 97 93 91 91 89 92 97 98 99 99 96 96 100 100 100 101 100 100 100 100 99 98 95 92 88 83 78 76 76 81
99 98 98 99 99 100 100 99 98 99 98 96 95 96 98 99 97 94 92 90 90 90 90 90 90 88 85 82 80 82 85 88 94 97 92 92 97 97 95 97 100 100 99 97 98 100 97 96 100 100 99 100 100 100 99 98 97 96 92 88 85 85 87
100 100 101 99 96 97 100 100 99 96 93 92 95 97 98 99 99 98 99 99 98 98 97 98 97 95 92 88 85 83 82 84 92 99 96 95 100 101 97 97 97 95 93 93 98 100 95 94 99 100 100 100 100 100 100 100 100 100 98 95 91 89 90
96 94 96 92 87 89 94 95 92 87 86 91 95 96 93 91 91 92 95 98 100 100 99 99 100 99 99 97 93 90 87 86 91 98 99 98 96 92 88 87 86 86 91 96 99 101 99 98 100 100 100 100 100 100 100 100 100 100 100 98 96 94 94
89 88 89 88 82 79 83 90 92 90 91 94 94 90 87 85 84 86 90 95 99 100 99 98 97 97 98 98 95 94 93 92 94 98 99 96 90 85 84 85 86 89 97 100 100 100 100 100 100 100 100 100 100 100 100 100 100 100 100 100 99 99 98
95 96 96 95 91 85 84 92 99 99 98 98 93 86 84 84 85 89 94 97 100 100 100 100 98 96 95 95 95 96 97 96 97 99 99 97 93 90 90 94 96 98 100 100 100 100 100 100 100 100 100 100 100 100 100 100 100 100 101 101 101 100 100
100 101 99 98 98 96 95 96 98 99 100 100 95 89 85 87 92 97 99 100 100 100 100 100 100 99 99 99 99 99 99 98 99 101 100 99 99 97 97 99 100 100 100 100 100 100 100 100 100 100 100 100 100 100 100 100 100 100 101 101 101 100 98
100 100 100 100 98 97 99 99 96 96 99 99 94 92 91 91 96 100 100 100 100 100 100 100 100 100 100 100 100 100 100 100 100 99 98 99 100 99 99 100 100 100 100 100 100 100 100 100 100 100 100 100 100 100 100 100 100 100 101 101 100 100 99
100 99 100 101 99 95 97 100 97 96 99 98 95 96 97 95 96 100 100 100 100 100 100 100 99 99 99 100 100 100 100 100 99 97 98 100 100 100 101 100 99 99 100 100 100 100 100 100 100 100 100 100 100 100 100 100 100 100 100 100 98 96 92
99 100 99 101 100 95 94 99 99 97 99 99 98 100 100 97 98 99 98 97 97 98 98 97 97 98 99 99 98 99 99 100 100 100 100 99 100 101 99 93 92 97 100 100 100 100 100 100 100 100 100 100 100 100 100 100 100 100 99 97 91 84 76
99 101 100 100 101 98 95 96 99 100 99 99 100 100 99 99 99 96 92 92 93 92 92 95 98 100 99 97 97 99 100 100 100 100 100 100 100 97 91 89 93 100 101 99 100 100 99 100 101 100 100 100 100 100 100 100 101 98 92 84 75 67 62
100 100 100 100 100 100 97 94 96 99 100 100 100 100 100 101 99 92 87 88 91 91 91 94 98 99 97 97 98 100 100 100 100 100 100 99 94 88 86 92 99 101 100 100 100 100 100 100 100 100 100 101 100 100 102 101 95 85 75 68 63 60 58
100 100 101 100 100 101 98 94 94 98 100 100 99 99 100 101 99 94 89 90 93 93 92 93 96 97 98 99 100 100 100 100 100 100 97 92 89 88 92 98 101 100 100 101 100 100 101 100 100 100 101 99 100 102 100 90 76 66 61 59 57 54 52
100 99 97 96 99 101 100 97 97 99 100 98 98 99 100 100 99 97 94 94 96 96 94 93 94 96 99 100 99 100 100 100 100 98 89 84 89 95 98 99 100 100 100 100 100 101 100 100 100 100 99 100 102 99 85 70 60 58 57 55 52 50 48
97 93 91 94 98 100 100 100 100 99 98 98 99 100 100 99 99 98 97 98 98 96 95 94 93 94 99 101 100 100 100 100 99 94 85 83 91 98 98 98 100 100 100 100 100 100 100 101 100 98 97 101 98 84 68 59 57 56 53 51 51 50 46
94 91 92 97 100 100 100 100 98 96 97 99 100 100 99 97 96 96 98 101 100 95 94 94 94 94 98 101 100 99 100 100 98 91 86 88 93 94 95 98 100 100 100 100 100 100 101 101 100 99 99 96 83 68 59 56 55 52 51 50 48 46 44
91 92 91 94 98 99 98 96 93 91 95 100 100 99 97 91 88 90 95 100 101 97 94 94 96 96 99 100 99 98 99 99 95 90 90 94 94 92 93 98 100 100 100 100 100 100 100 100 101 99 92 79 66 59 57 55 52 50 49 46 42 41 41
87 94 94 91 93 95 94 94 93 92 95 100 100 99 97 91 85 87 92 97 101 100 97 97 98 98 99 100 100 98 98 96 94 93 95 95 92 90 91 95 98 99 100 100 100 100 102 102 98 88 75 62 54 53 53 52 50 47 43 40 39 39 38
84 90 93 89 90 93 95 97 97 95 96 101 101 100 100 95 89 89 92 95 99 100 98 99 100 98 99 100 100 99 99 98 97 98 98 95 92 91 92 94 98 100 100 101 102 101 98 90 78 66 57 51 48 48 48 48 45 42 40 39 39 38 38

ECMWFFLT1_850_rhum_036.txt.gz
RH
72 71 70 73 73 71 81 93 95 96 100 101 99 97 96 94 97 96 87 89 99 101 100 98 95 91 82 77 79 79 79 86 90 90 95 100 100 97 95 95 99 98 95 96 94 89 85 82 82 82 78 78 78 77 75 73 70 69 68 70 68 63 56
74 72 71 75 79 80 85 91 96 100 101 100 100 99 98 95 97 96 86 84 93 99 101 99 96 89 80 77 87 92 93 97 94 86 87 93 98 101 100 96 97 95 92 97 96 91 90 88 84 83 80 77 76 74 71 68 68 69 69 68 68 70 71
95 93 91 93 94 92 92 96 99 101 99 99 101 100 100 98 97 96 92 89 92 97 99 97 94 90 86 85 92 99 99 98 92 83 79 81 88 96 99 97 98 95 90 92 96 91 89 90 88 85 82 79 77 76 72 69 67 65 63 61 58 59 68
98 98 97 99 101 99 99 101 100 100 100 100 100 99 100 101 99 98 97 95 96 98 96 94 95 96 94 93 95 98 100 97 90 82 76 74 78 85 93 97 99 98 91 90 97 96 90 89 91 89 86 83 81 78 76 73 69 66 62 59 56 54 56
86 85 87 91 97 100 100 99 98 99 99 98 99 100 100 100 100 100 98 97 98 97 93 92 97 100 98 96 95 93 95 97 93 86 81 78 77 79 85 93 99 101 98 96 99 99 96 95 96 95 92 89 85 81 79 77 73 69 67 64 61 59 56
90 82 78 79 85 90 92 91 90 91 92 92 95 98 100 100 100 100 98 99 100 98 94 94 99 100 98 98 97 90 88 94 96 93 89 82 77 78 84 93 99 100 100 100 101 99 99 100 100 98 96 93 90 86 83 81 78 74 73 70 66 63 59
98 91 82 74 74 78 80 79 77 77 81 85 88 91 97 101 100 99 99 99 100 100 98 99 99 98 94 94 96 92 87 88 91 91 91 86 79 80 89 97 100 100 100 99 100 100 100 100 100 99 98 95 93 91 89 88 85 82 80 78 75 70 64
100 98 89 77 70 70 71 71 68 68 71 76 80 84 91 98 100 100 100 99 100 100 99 98 93 86 82 83 87 89 87 86 87 89 91 91 86 83 91 100 100 99 101 100 99 100 100 100 101 100 99 98 96 94 93 91 89 88 87 84 81 77 73
100 100 96 86 78 73 70 67 63 60 61 65 72 78 82 89 96 98 98 97 97 95 92 90 83 72 68 72 78 84 87 87 89 92 93 95 91 84 85 96 101 100 100 100 100 100 100 100 100 100 100 101 98 94 92 92 90 90 90 88 86 83 79
100 100 99 97 95 91 86 81 74 68 64 60 63 70 74 79 86 93 96 94 92 90 87 84 79 68 62 63 69 77 85 87 88 93 97 99 97 89 82 86 96 100 100 100 100 100 100 100 100 100 100 99 95 93 95 95 93 91 92 92 93 92 89
100 100 100 100 101 100 98 95 91 89 86 77 66 63 68 72 77 83 88 89 87 87 86 83 80 73 64 59 61 67 78 86 86 88 96 101 100 97 89 82 83 92 98 100 100 100 100 100 100 98 98 97 96 96 99 98 95 94 93 93 94 94 92
100 100 101 100 100 101 100 99 98 98 99 97 84 69 63 65 70 75 80 82 81 81 82 80 78 75 68 60 57 63 74 84 87 86 90 98 101 99 95 85 76 79 91 98 98 99 100 100 98 95 94 95 95 96 99 99 98 98 94 90 90 89 88
101 99 100 100 100 101 100 99 101 100 99 101 97 85 72 63 63 67 71 73 75 75 75 73 71 70 67 57 54 64 76 83 89 90 89 95 101 99 94 86 76 74 85 95 98 100 100 96 94 93 90 89 91 94 98 101 100 100 97 91 89 87 86
100 100 101 100 99 100 100 100 100 100 100 100 98 95 85 68 57 59 64 65 68 68 66 64 62 61 59 52 50 64 78 82 88 93 91 93 99 100 96 90 83 78 82 93 100 100 98 95 93 91 88 89 94 96 98 99 99 99 98 95 92 90 89
100 100 100 100 100 100 100 101 100 99 101 101 98 98 93 74 56 52 55 56 59 60 58 56 54 51 51 48 49 63 78 83 87 92 93 91 93 98 99 96 89 82 81 92 101 100 97 98 98 95 93 96 99 98 98 98 98 97 98 97 96 96 95
100 100 100 100 100 100 99 100 101 100 100 100 99 99 99 90 75 64 58 54 54 54 53 54 55 55 57 55 53 62 75 82 89 96 97 95 93 93 98 99 93 83 81 89 97 100 100 100 99 100 100 100 100 100 99 100 100 100 100 99 99 100 99
100 100 101 100 100 100 97 97 99 100 99 100 101 99 99 100 97 88 76 67 65 67 70 77 80 80 82 80 70 67 73 82 93 98 98 100 99 93 96 101 94 86 88 90 90 94 99 100 99 100 100 100 100 100 99 99 98 99 99 100 100 99 98
99 100 101 100 101 101 96 93 97 101 100 99 100 101 99 99 101 99 93 86 86 89 93 97 99 97 100 97 86 79 82 89 96 98 95 98 100 96 98 99 90 88 97 98 90 89 95 99 100 100 99 99 99 98 97 96 94 95 98 98 96 95 97
99 99 100 100 99 99 96 91 90 96 101 100 99 100 100 100 100 100 99 98 98 100 100 100 100 99 100 99 94 91 94 97 99 98 93 94 97 96 96 98 96 96 100 99 94 94 97 99 100 100 99 99 98 97 96 93 93 94 94 92 91 92 95
97 95 96 95 92 93 97 94 85 85 93 99 101 101 100 100 100 100 100 101 100 99 100 100 101 101 100 99 96 93 93 95 98 100 97 96 99 95 90 93 98 96 93 94 97 100 100 100 100 100 100 100 99 99 98 96 96 95 92 92 91 90 90
96 92 87 83 82 85 94 98 92 84 83 88 96 101 100 98 98 99 100 101 100 98 96 94 95 96 97 98 98 96 94 92 94 99 100 100 99 95 90 92 95 95 95 97 100 101 99 100 100 100 100 100 100 100 100 99 99 98 97 98 96 93 93
94 89 81 80 87 93 96 98 98 94 87 84 88 96 100 98 95 95 94 95 96 97 95 93 92 92 91 94 96 97 98 96 94 97 99 100 99 97 95 96 96 98 100 100 100 100 100 100 101 100 100 100 99 100 100 100 100 100 100 100 98 97 97
93 88 81 81 88 94 98 99 100 100 96 87 85 93 100 100 98 98 94 89 84 83 84 86 89 91 93 95 96 95 97 98 97 94 94 97 99 99 99 99 99 99 101 100 99 101 101 99 98 98 99 100 100 100 99 100 100 100 100 100 100 99 98
96 95 90 84 79 82 94 101 100 100 99 92 89 95 100 100 99 99 96 90 84 81 83 84 86 90 93 96 98 97 98 100 99 95 95 98 100 98 98 100 100 99 100 100 99 100 100 99 96 96 96 96 97 99 98 97 98 100 100 100 100 99 99
99 99 98 93 84 85 96 102 99 99 101 98 97 99 100 100 100 99 95 91 89 90 94 96 96 96 96 96 97 97 97 99 99 98 98 100 100 99 98 99 100 100 100 100 100 100 100 99 98 98 97 95 95 98 99 98 97 98 99 101 100 100 101
100 100 101 98 94 94 99 101 98 98 100 100 100 101 100 100 100 99 95 93 92 94 97 99 100 100 98 97 97 95 93 93 93 94 97 99 100 100 99 99 99 100 99 97 96 96 99 101 100 100 100 99 98 99 100 100 97 94 97 101 100 99 101
100 100 100 100 99 99 100 100 99 99 100 100 100 100 100 100 100 98 96 96 98 99 99 100 100 100 99 98 97 96 95 93 91 91 94 97 99 99 99 101 100 96 93 90 85 85 91 98 100 100 100 101 100 99 100 101 98 95 97 100 100 100 100
100 100 100 100 100 100 100 100 100 100 99 100 100 100 100 100 98 94 92 93 94 95 97 100 101 100 99 98 98 99 100 98 96 94 93 96 98 97 95 98 100 98 96 95 91 87 89 96 101 100 98 98 99 100 100 100 99 98 99 101 100 100 101
100 100 100 100 100 100 100 100 100 100 100 100 101 100 98 95 92 88 87 89 92 95 98 100 100 100 100 100 100 100 100 100 99 98 97 98 99 98 94 94 97 100 100 100 100 98 97 99 101 100 98 97 98 100 100 100 100 100 100 100 100 100 100
100 100 100 100 100 99 99 100 100 99 100 100 97 93 89 88 89 88 87 88 92 98 100 100 100 100 100 100 100 100 100 97 93 93 96 97 97 99 99 97 98 100 100 100 100 100 100 100 100 100 100 99 99 100 100 100 101 100 100 100 100 100 100
101 100 100 100 100 98 96 97 98 99 101 100 93 86 83 84 87 88 87 90 96 100 101 100 99 99 99 99 99 101 99 93 89 93 99 99 98 100 101 100 100 100 100 100 100 100 100 100 100 100 100 100 100 100 100 100 100 100 100 100 100 100 100
100 99 100 100 100 99 97 97 97 98 98 94 87 82 83 85 87 88 89 93 98 100 100 100 98 97 99 100 100 101 99 95 95 99 101 99 97 95 94 95 97 98 99 101 100 99 100 100 100 100 100 100 101 100 100 100 101 100 100 100 100 100 100
100 100 101 100 99 99 99 100 99 98 95 90 86 84 85 86 87 88 88 93 99 100 100 100 98 98 99 100 100 100 100 99 100 100 96 93 89 83 81 83 85 88 95 100 100 99 100 100 100 101 100 100 100 100 100 100 100 99 100 100 100 100 100
96 100 100 99 100 100 97 96 95 93 92 91 87 84 84 86 87 87 86 90 98 101 100 100 100 100 100 100 101 100 99 100 100 94 88 87 85 79 76 79 85 91 96 99 100 100 100 100 100 100 100 100 100 100 100 100 98 97 96 96 98 100 100
91 98 101 100 100 100 97 96 95 95 95 93 88 85 86 88 88 87 87 91 97 101 100 100 101 101 100 100 100 100 100 101 99 93 88 88 87 83 78 79 88 96 100 100 100 100 99 100 100 100 100 100 100 99 100 100 99 97 95 95 97 98 94
89 93 99 100 100 99 99 98 98 98 99 95 90 87 88 87 86 88 90 93 97 100 101 101 100 100 100 100 100 100 100 99 97 96 95 93 90 88 87 88 93 99 100 100 101 100 98 100 100 100 100 100 100 100 100 99 100 101 101 98 94 89 82

ECMWFFLT1_850_rhum_039.txt.gz
RH
84 84 81 76 69 66 68 70 69 67 63 63 58 62 81 96 100 101 97 97 95 82 78 83 88 91 80 69 72 71 66 73 82 87 87 82 84 95 102 99 100 100 89 80 80 81 85 86 84 85 88 92 96 98 98 96 93 94 95 90 85 83 71
88 89 95 97 91 82 76 70 67 68 69 72 77 85 98 101 99 101 99 97 94 86 85 92 92 89 82 77 80 81 83 92 96 94 91 85 85 93 100 100 100 100 96 91 87 82 83 87 85 83 85 89 93 96 98 97 94 91 89 89 89 89 83
95 96 99 101 101 100 97 90 86 89 89 91 97 99 100 100 99 101 100 99 99 93 93 99 96 90 88 91 93 93 95 99 94 88 87 86 88 93 99 99 97 98 99 99 97 91 87 87 86 84 82 85 89 95 98 97 95 93 89 85 85 89 91
99 100 99 94 92 91 92 96 99 101 100 99 100 101 100 100 100 100 100 101 101 98 98 99 92 87 93 100 101 98 96 92 84 79 81 87 92 98 101 98 94 96 100 100 100 99 95 90 89 89 86 86 89 93 96 96 94 93 93 90 83 79 79
100 102 101 95 91 84 80 88 96 97 100 101 100 100 100 99 100 101 100 100 100 100 100 99 91 84 87 95 100 100 96 87 77 76 87 96 98 99 99 97 95 94 97 100 100 100 100 97 96 97 95 91 90 90 92 96 95 92 93 95 92 83 75
101 101 101 98 96 90 79 78 85 89 93 96 98 99 97 96 98 100 100 100 101 100 99 100 97 90 87 91 98 97 89 81 75 79 93 101 101 99 94 91 94 94 94 98 100 100 100 100 100 100 100 97 94 92 91 92 94 94 92 92 92 90 86
100 100 101 98 97 95 85 76 75 80 83 84 86 88 89 92 94 95 98 100 101 100 99 99 99 99 95 93 95 92 82 78 80 88 98 101 100 99 94 88 91 96 98 98 99 100 100 100 100 100 100 100 99 96 94 92 91 90 89 88 88 87 87
100 100 100 100 98 97 94 84 72 70 73 74 74 74 78 83 87 90 93 97 100 101 100 100 99 100 100 97 95 93 86 83 86 93 98 100 100 99 94 89 88 94 100 100 99 100 100 99 100 101 100 100 101 99 96 92 90 87 84 84 86 88 88
100 100 100 101 100 99 100 95 81 70 67 66 64 65 69 74 78 81 83 88 98 100 98 100 101 99 100 100 98 98 94 89 88 89 90 95 100 100 98 95 94 97 101 101 100 100 101 100 100 100 100 100 100 98 94 90 89 89 88 87 88 90 90
100 100 100 100 100 100 101 99 94 87 80 73 65 60 60 65 71 76 75 76 89 98 97 98 101 100 100 99 96 95 93 90 89 88 86 89 93 95 97 100 100 99 99 100 100 100 100 101 101 100 100 100 100 98 97 96 93 90 90 91 94 94 92
100 100 101 100 100 101 100 99 99 99 97 92 85 74 65 61 62 68 71 69 77 92 97 97 99 99 97 93 87 82 79 81 88 91 88 88 90 92 96 99 97 94 94 97 101 101 100 100 100 99 98 98 101 100 99 100 97 94 92 91 92 92 90
100 100 100 100 100 100 100 101 100 100 100 100 99 96 89 78 67 63 67 68 70 80 90 95 96 95 93 89 82 74 69 69 77 84 87 87 88 92 94 95 96 95 91 90 94 98 101 101 100 100 97 95 98 100 100 100 99 98 96 93 91 90 87
100 100 100 100 101 100 100 101 100 100 101 99 100 101 100 97 86 70 63 65 68 72 79 87 91 92 92 89 83 76 70 66 64 69 78 83 85 91 92 91 95 99 95 89 87 90 94 97 99 100 96 91 91 95 100 101 100 100 99 96 94 92 89
100 100 101 100 100 100 100 100 100 100 100 100 100 100 99 101 99 84 67 61 64 65 69 78 84 88 89 88 87 82 76 71 66 61 67 78 83 89 92 92 96 100 98 94 88 81 78 83 92 97 94 92 94 97 100 100 100 99 98 97 97 95 94
100 100 100 101 100 100 100 101 101 100 100 100 100 101 100 98 96 87 70 59 59 59 61 69 77 83 85 84 85 84 80 77 70 59 63 76 81 84 90 95 96 96 96 95 90 81 73 72 83 93 96 98 100 100 100 99 99 99 97 97 98 99 99
101 101 100 100 100 100 98 97 98 100 101 100 100 100 101 100 95 86 71 58 55 54 56 63 70 76 81 80 79 80 79 76 67 57 63 76 80 83 91 94 93 95 97 95 90 85 78 73 78 89 96 100 101 100 100 100 100 100 100 100 100 100 100
99 100 100 101 100 101 98 93 92 95 97 100 101 99 99 101 100 95 84 69 58 52 51 57 64 71 75 75 72 70 65 63 58 54 61 75 81 85 91 89 86 92 99 97 92 90 85 81 85 93 97 99 101 100 100 100 100 99 100 101 100 100 100
99 98 98 98 97 99 100 92 86 88 92 96 101 100 100 100 100 100 98 92 83 71 59 53 55 60 64 62 61 59 55 54 55 54 60 74 83 89 93 89 81 82 89 93 92 90 86 84 89 98 100 100 100 98 96 97 99 99 99 100 100 100 101
100 96 93 95 98 100 101 94 84 83 86 90 96 100 101 100 100 100 100 100 100 96 82 67 56 56 61 63 66 71 72 73 77 74 69 75 85 92 95 92 88 85 86 89 94 96 92 86 85 92 98 101 100 99 96 96 98 100 100 100 100 100 101
99 92 87 89 93 94 98 99 91 85 83 84 88 96 101 100 99 101 101 99 100 101 98 91 82 80 84 87 91 94 95 95 98 94 85 85 92 94 90 87 90 92 90 90 96 100 96 89 85 87 94 100 101 100 100 100 100 100 100 100 100 99 99
93 89 85 83 83 86 95 102 98 90 84 80 79 85 94 100 100 99 99 100 100 100 100 100 99 98 99 100 100 100 99 99 101 100 97 97 95 92 88 86 87 91 91 90 93 94 92 93 94 91 92 98 100 97 97 97 96 96 98 101 100 97 96
89 89 87 81 79 87 97 101 100 97 91 86 82 77 80 91 99 98 94 95 100 101 100 100 100 99 100 101 100 100 98 97 98 99 100 100 95 91 93 94 92 92 92 91 92 95 96 98 99 94 94 99 99 94 94 93 90 91 95 100 101 99 98
90 92 88 78 73 85 98 100 100 100 95 92 92 86 80 84 96 99 93 89 92 94 94 95 95 92 92 95 97 98 97 97 99 100 100 100 98 95 95 98 96 95 96 94 96 100 101 99 98 97 98 100 100 98 98 98 95 95 98 100 100 100 100
95 97 94 87 82 89 99 101 100 98 95 95 99 98 93 93 97 100 96 91 88 86 84 85 86 85 88 93 96 96 97 97 98 100 100 100 100 98 98 100 99 97 99 97 96 99 100 98 99 101 100 100 100 100 100 100 100 100 100 100 100 100 100
99 99 100 99 97 97 100 101 100 98 95 98 100 99 99 100 99 99 100 98 95 91 88 87 89 91 94 98 98 98 99 98 97 98 100 100 101 99 100 100 97 96 99 99 94 95 100 100 100 100 100 100 101 100 100 100 101 101 100 100 100 100 100
100 100 100 100 100 101 100 100 100 100 99 99 100 99 99 101 101 100 101 101 99 97 96 97 98 98 99 100 100 99 100 100 98 98 99 100 101 100 100 100 97 95 98 98 93 94 99 101 99 98 100 101 101 99 96 93 94 97 99 100 100 100 100
100 100 100 100 100 100 100 99 100 101 100 100 100 100 100 99 98 97 97 98 99 100 100 100 100 99 99 99 98 97 98 98 97 97 97 99 100 100 100 101 99 95 92 92 91 93 98 99 96 94 95 96 96 95 91 87 88 92 95 95 98 101 100
100 100 100 100 101 100 99 100 100 100 101 100 99 98 98 96 94 92 90 90 93 98 100 100 100 99 98 96 96 96 97 98 98 99 98 99 99 100 100 100 100 96 91 90 93 96 97 96 94 94 92 91 94 97 96 92 91 94 96 96 98 100 100
100 101 100 99 100 101 100 100 100 100 101 100 96 93 92 90 89 91 91 92 94 98 99 100 100 100 99 99 99 99 99 99 100 100 100 100 100 99 99 100 100 99 96 96 95 93 88 85 88 93 97 97 98 100 101 98 95 96 98 99 99 100 100
100 100 100 100 100 100 100 100 101 100 100 100 99 97 96 93 92 94 95 97 99 101 100 100 99 99 100 100 100 100 100 99 97 95 97 100 101 100 100 100 100 100 100 99 97 91 83 78 78 85 95 101 100 99 101 100 98 97 99 100 100 100 100
101 100 100 101 100 100 100 99 98 99 99 99 99 99 98 96 95 94 94 95 98 99 98 97 97 98 99 99 99 100 99 96 92 93 97 101 100 100 100 100 100 100 100 100 100 98 94 88 83 84 93 99 100 100 100 100 100 99 100 101 100 100 100
101 100 100 101 100 100 100 99 97 96 96 96 95 95 96 98 96 94 93 95 98 98 95 95 97 99 100 99 99 100 97 95 95 98 101 101 100 100 100 100 100 101 100 100 100 100 101 100 96 95 97 99 100 101 100 100 100 100 100 100 101 100 100
99 99 100 100 100 100 100 100 98 94 93 94 91 89 95 100 98 94 93 96 98 98 96 97 100 101 100 100 101 100 99 99 100 101 99 96 94 94 95 97 100 100 100 100 101 100 100 101 100 100 100 100 100 100 100 100 100 100 100 100 100 100 100
90 96 98 99 100 101 100 99 97 95 97 97 90 87 95 101 97 94 94 95 97 99 99 100 100 100 100 100 100 100 100 100 98 96 93 89 85 84 85 89 95 100 100 100 100 100 100 100 100 100 100 100 100 100 100 100 100 100 100 100 100 100 101
85 92 98 99 100 101 100 99 98 99 101 99 92 91 96 95 91 93 98 99 99 100 100 100 100 100 101 101 100 101 102 100 96 92 90 87 82 80 79 79 84 94 100 100 100 100 100 100 100 101 100 100 101 100 99 100 101 100 100 101 100 100 99
86 90 98 101 100 100 100 99 99 99 100 100 98 95 90 86 90 97 101 100 100 101 101 100 100 99 99 100 99 99 100 100 97 93 90 86 82 81 81 80 83 91 98 100 100 100 100 100 100 100 100 100 100 101 101 100 100 100 100 99 98 96 96

ECMWFFLT1_850_rhum_045.txt.gz
RH
87 85 84 81 80 79 77 75 75 75 75 74 74 73 74 74 75 77 76 75 76 79 84 88 90 95 98 99 98 99 101 97 90 89 93 92 84 80 81 82 87 94 93 85 79 78 78 77 81 83 81 80 77 69 63 63 68 75 81 87 92 96 101
94 93 90 88 88 87 84 82 81 81 81 81 84 85 83 78 74 75 76 75 76 76 78 82 88 93 94 91 89 91 97 100 97 96 98 98 92 83 75 76 84 90 93 90 79 71 72 74 76 74 67 67 69 67 64 61 62 69 77 85 92 95 99
99 98 97 95 94 92 90 90 89 89 89 89 92 96 95 90 85 83 83 83 84 83 83 84 84 78 75 84 93 95 98 101 100 99 99 99 99 92 77 72 79 83 84 87 83 76 72 70 76 78 67 57 54 60 69 67 59 60 67 77 87 93 95
100 100 100 99 99 97 95 95 95 95 95 94 95 97 98 98 96 95 95 94 95 94 90 88 86 79 79 93 103 100 98 100 100 100 100 99 101 97 83 77 80 78 77 81 79 77 76 70 73 82 76 58 51 60 72 72 64 59 59 65 76 86 92
100 100 100 100 100 100 99 98 97 97 97 97 96 95 95 96 97 98 100 99 100 101 98 96 97 96 96 101 101 95 95 99 99 100 100 99 101 99 91 83 75 67 73 81 78 79 86 78 72 80 77 60 55 63 72 75 73 67 62 63 66 75 87
100 100 100 100 100 100 100 100 99 99 99 99 99 98 97 96 97 99 100 100 100 100 98 100 100 100 101 101 95 92 94 98 100 100 100 99 99 98 93 82 65 57 68 80 82 88 92 81 75 81 77 62 59 70 79 83 81 74 71 70 66 66 78
100 100 100 100 100 100 100 100 100 100 100 100 100 99 99 99 99 101 100 100 101 100 98 100 100 101 101 95 88 91 98 101 99 98 100 99 92 88 91 87 75 69 72 76 83 90 87 77 78 86 84 73 70 79 89 91 87 80 77 78 74 67 72
100 100 100 100 100 100 100 100 100 100 100 100 100 100 100 100 100 101 101 97 91 86 90 96 98 99 96 87 84 92 100 101 98 98 100 98 89 84 89 90 83 82 82 78 83 92 87 78 81 87 89 85 83 87 91 89 87 82 78 83 85 80 76
100 100 100 100 100 100 100 100 100 100 100 100 100 100 100 100 100 100 102 98 84 68 68 80 88 90 86 80 83 94 99 100 100 100 100 98 91 85 86 86 83 88 93 86 86 95 93 85 87 93 94 92 87 81 78 81 86 86 84 88 92 91 86
100 100 100 100 100 100 100 100 100 100 100 100 100 100 100 100 100 100 100 101 90 70 59 64 74 80 80 77 81 91 98 100 100 99 99 101 98 90 85 84 82 85 91 91 92 96 92 86 87 92 96 97 87 76 75 82 88 89 90 95 97 95 91
100 100 100 100 100 100 100 100 100 100 100 100 100 100 100 100 100 100 100 101 97 82 63 56 62 70 74 75 79 86 95 99 100 98 95 94 98 98 91 86 86 89 92 95 98 95 88 85 85 89 95 95 89 83 79 78 81 88 95 100 100 97 92
100 100 100 100 100 100 100 100 100 100 100 100 100 100 100 100 100 100 100 100 101 91 70 54 54 63 68 70 73 82 91 96 98 99 93 84 85 93 94 90 95 101 98 95 95 90 85 85 87 90 90 85 87 94 88 75 76 87 96 100 100 97 94
100 100 100 101 100 99 98 98 99 101 100 100 100 100 100 100 100 100 100 99 100 97 81 61 52 56 63 66 68 74 82 89 94 99 98 90 86 92 96 93 94 99 98 95 94 93 91 89 89 91 88 80 86 99 95 83 80 85 94 101 99 94 93
100 98 97 100 101 99 96 95 96 99 100 100 100 100 100 100 100 100 100 100 99 100 94 81 66 57 56 59 63 67 71 78 88 97 100 99 97 99 99 95 92 94 95 93 93 95 94 92 90 92 92 90 93 98 97 94 92 90 94 99 98 95 96
99 93 91 96 100 99 96 94 96 98 96 95 97 100 100 100 100 100 100 100 100 100 100 98 91 79 66 57 55 59 65 70 76 87 97 100 100 100 100 99 97 94 92 92 94 94 90 87 88 93 96 97 98 97 96 98 99 99 97 97 98 99 99
98 91 88 92 98 100 97 92 94 97 95 92 94 98 100 100 100 100 100 100 100 100 100 100 100 98 91 77 62 55 62 67 67 74 89 100 100 97 94 94 91 86 84 86 89 91 91 88 88 93 98 99 97 94 92 92 93 96 99 100 100 100 99
96 88 88 93 97 101 99 94 95 98 98 97 97 98 100 100 100 100 100 100 100 100 100 100 100 100 101 97 83 64 57 60 61 65 80 95 99 96 90 85 80 76 74 74 76 80 83 84 84 88 95 100 99 94 90 86 81 83 94 100 100 100 100
92 85 91 98 100 100 100 98 99 101 100 100 100 100 100 100 100 100 100 100 101 99 97 99 100 100 99 101 97 79 60 55 56 60 71 86 94 96 92 83 76 73 69 69 73 73 73 75 77 79 85 93 99 99 95 88 78 77 91 101 101 99 100
93 90 96 101 101 100 100 100 100 99 98 99 98 99 101 100 99 100 100 99 101 98 95 96 100 101 99 100 101 88 66 54 55 59 69 81 88 92 90 84 81 78 71 69 74 74 74 72 67 69 75 81 90 99 98 91 82 77 85 96 101 99 100
97 98 99 100 100 100 100 100 99 98 97 96 93 95 99 100 99 100 100 99 100 99 97 96 98 100 100 99 101 92 69 53 54 60 67 78 86 88 87 84 84 81 76 75 77 76 74 68 62 68 75 77 87 99 98 91 85 79 80 92 101 100 99
98 100 99 99 100 100 100 100 100 99 96 94 92 94 98 100 100 100 100 100 100 100 99 98 98 100 100 99 102 97 74 53 52 58 63 71 80 82 82 82 81 78 75 75 73 69 66 61 62 76 82 80 89 100 95 88 86 81 82 93 101 100 99
97 100 100 99 100 100 100 100 99 100 98 97 97 98 99 100 100 100 100 100 99 99 100 100 100 100 100 99 101 100 83 61 53 55 58 64 71 74 75 76 73 71 73 75 76 78 75 67 68 82 91 89 91 93 88 87 87 81 82 93 100 100 99
98 100 100 100 100 100 100 100 99 100 99 98 100 100 99 99 99 99 100 101 100 100 100 100 100 100 101 100 99 101 97 83 70 63 58 58 60 61 63 66 69 74 82 89 94 96 95 87 81 87 95 97 94 88 87 92 93 85 80 87 96 100 100
100 100 100 100 100 100 100 99 100 100 98 97 97 97 96 98 100 99 100 100 99 98 97 99 100 99 99 98 95 97 99 98 92 85 76 70 68 67 70 78 86 91 96 100 101 99 97 95 90 91 96 98 95 91 91 95 97 89 78 79 89 98 100
100 100 100 100 100 99 99 99 100 100 98 96 97 95 92 92 97 101 101 100 98 97 96 99 100 99 98 96 95 95 95 97 99 98 95 93 92 91 93 96 99 100 99 100 100 99 98 96 93 94 97 97 97 96 95 96 95 86 74 72 81 94 100
100 100 100 100 99 99 99 100 100 100 98 97 98 98 91 84 85 93 98 100 100 100 100 100 100 100 100 99 99 99 98 98 100 99 99 100 100 100 100 100 100 100 100 99 100 99 100 99 98 98 96 96 99 100 99 98 94 83 73 69 75 89 100
100 100 100 100 100 98 99 99 99 100 100 99 99 99 91 80 76 81 89 95 96 97 99 101 100 100 101 100 100 100 100 100 100 99 99 100 100 100 100 100 100 100 99 98 99 99 99 100 100 97 93 93 97 99 98 100 98 89 80 76 78 91 100
100 100 100 100 100 99 99 100 99 100 100 100 100 99 92 83 78 78 85 93 96 97 99 101 100 100 100 100 100 100 100 100 100 99 99 100 100 100 100 98 99 100 99 99 99 99 100 100 98 95 93 93 94 94 96 100 98 89 85 86 91 97 101
100 100 100 100 100 100 99 100 100 100 100 99 101 100 95 87 81 81 86 93 97 99 100 100 100 100 100 100 100 100 100 100 100 100 100 99 98 99 99 97 95 94 96 99 100 99 100 100 98 97 98 96 95 95 99 101 95 88 88 94 99 100 100
100 100 100 100 100 100 100 100 100 100 100 99 100 100 95 86 81 82 88 92 97 100 101 100 100 100 100 100 100 100 100 100 99 99 98 96 95 95 97 98 97 93 91 94 98 100 100 100 100 100 100 100 98 98 100 100 95 90 93 98 100 100 100
101 101 100 100 100 100 100 100 100 100 100 100 100 100 97 88 82 85 90 94 97 100 101 100 100 100 99 99 99 98 98 99 99 98 97 95 93 91 90 94 97 98 95 94 96 99 100 100 100 100 99 99 98 97 99 100 98 95 97 100 100 100 100
101 101 100 100 100 100 100 100 100 100 100 100 100 101 99 93 87 88 94 96 97 99 100 100 101 100 100 100 99 98 99 99 100 100 98 97 97 96 94 93 95 97 99 99 99 100 100 100 100 100 100 99 97 97 98 99 98 97 99 101 100 99 100
100 101 101 100 100 100 100 100 100 100 100 100 100 100 100 97 93 92 95 96 97 99 100 100 100 100 100 100 100 100 100 99 99 97 93 92 92 94 95 97 98 98 99 100 100 100 100 100 100 100 100 100 99 99 99 99 98 99 100 100 100 100 100
93 98 101 101 100 100 101 101 100 100 100 100 100 100 100 100 97 95 95 97 97 99 100 100 101 101 101 100 100 99 96 94 93 91 88 85 83 82 83 87 93 98 100 100 100 100 100 100 100 100 100 100 100 99 99 100 100 100 100 100 100 100 98
85 90 96 99 100 100 100 100 100 100 100 100 100 100 100 101 99 96 96 98 100 100 101 101 100 100 98 96 94 92 89 87 85 84 84 82 80 78 77 77 81 91 100 101 99 100 100 100 100 100 100 100 100 100 100 100 100 100 100 101 99 96 93
86 86 89 93 97 99 100 100 100 100 100 100 100 100 100 100 98 94 94 96 99 100 101 101 99 96 94 91 87 84 82 80 78 78 81 84 84 81 78 76 75 83 95 101 100 99 101 100 100 100 100 99 100 100 100 100 100 100 100 101 98 95 94

ECMWFFLT1_850_rhum_048.txt.gz
RH
100 100 99 98 96 94 91 87 85 84 82 80 78 76 77 77 74 73 73 72 72 74 76 77 79 83 82 80 82 82 82 87 92 93 89 82 79 79 79 80 83 87 87 84 83 81 76 73 70 68 69 76 83 86 82 76 71 69 69 67 64 62 63
101 101 101 101 100 99 97 94 92 90 88 84 83 81 79 80 79 77 76 75 74 74 77 79 78 77 76 77 80 84 88 93 97 99 99 93 85 85 87 85 87 91 90 88 85 81 80 78 71 62 56 60 70 75 72 67 63 61 61 62 61 63 64
100 101 102 101 101 101 99 99 98 95 94 91 87 86 85 84 84 85 86 85 83 79 77 79 80 80 80 80 83 89 94 98 99 100 101 95 82 79 87 91 92 94 93 90 87 83 82 80 75 67 58 58 67 73 71 65 58 54 51 48 49 53 58
99 100 101 100 100 100 99 100 100 99 97 95 93 91 91 90 91 92 92 91 92 91 86 83 82 79 77 78 80 83 87 95 100 96 92 90 84 79 84 91 96 98 98 94 87 82 80 77 75 71 64 62 68 74 77 71 59 51 47 42 42 44 48
100 100 100 100 100 100 100 100 99 100 99 99 99 97 96 96 95 94 92 89 89 91 93 94 92 88 85 83 79 75 76 79 82 85 90 96 98 95 93 91 94 99 100 98 95 87 81 77 76 74 68 62 64 71 80 80 67 52 46 44 44 43 45
100 100 100 100 100 99 100 100 100 100 99 99 100 100 99 99 97 96 94 92 90 87 87 90 92 96 96 90 83 83 82 72 66 78 96 101 99 100 101 94 90 94 99 100 100 96 90 86 82 78 69 58 60 73 81 78 68 56 48 47 48 48 48
100 100 100 100 100 100 100 100 100 100 100 100 100 99 100 100 99 99 98 98 98 95 92 88 86 93 101 97 94 97 98 91 84 88 98 102 98 97 100 100 95 95 99 100 99 97 94 90 83 75 65 56 64 81 86 79 73 63 50 45 49 51 49
100 100 100 100 100 100 100 100 100 100 100 100 100 100 100 100 100 100 99 100 100 99 100 97 89 87 92 96 99 100 99 100 100 98 93 94 97 97 97 100 100 99 99 99 100 99 95 90 83 70 59 61 76 89 87 81 79 71 56 48 50 52 52
100 100 100 100 100 100 100 100 100 100 100 100 100 100 100 100 100 100 100 100 99 98 100 102 99 93 86 83 89 97 100 98 100 101 91 85 91 98 100 99 100 101 100 97 96 97 96 97 91 74 63 70 80 81 77 78 81 78 67 62 64 63 62
100 100 100 100 100 100 100 100 100 100 100 100 100 100 100 100 100 100 100 100 100 100 100 100 100 99 93 80 74 85 97 98 99 97 88 83 90 98 100 99 98 99 100 99 96 92 94 98 91 78 75 75 72 74 81 83 83 78 73 77 84 79 70
100 100 100 100 100 100 100 99 99 100 100 100 100 100 100 100 100 100 100 100 100 100 100 101 99 98 99 89 71 68 78 91 97 92 83 84 93 97 97 97 98 99 99 100 98 94 95 95 86 80 83 80 76 82 87 82 80 84 83 87 92 83 70
98 98 97 97 98 98 99 99 99 100 101 100 100 100 100 100 100 100 100 100 100 100 99 101 100 99 100 96 79 64 61 70 81 81 79 86 93 95 96 97 99 100 99 100 100 98 96 91 82 79 83 86 85 85 83 81 88 93 89 87 87 80 70
94 95 96 96 96 97 98 99 100 101 101 100 100 100 100 100 100 100 100 100 99 101 100 99 100 100 99 100 95 79 62 58 64 70 77 87 92 95 98 99 99 100 98 98 99 100 98 96 92 87 86 87 86 83 84 92 96 94 92 92 87 79 73
92 93 95 96 97 99 99 99 100 101 101 100 100 100 99 100 100 99 100 101 99 99 100 99 100 100 99 100 101 88 64 54 62 72 75 79 85 91 97 99 97 94 90 88 92 99 100 98 96 91 89 91 94 92 93 96 95 93 96 98 91 84 85
93 92 91 94 98 101 100 99 100 100 100 100 100 100 99 99 100 100 99 100 100 99 100 100 100 100 100 99 102 96 76 59 60 69 71 73 80 85 91 98 98 90 82 79 85 96 98 93 88 85 85 91 95 96 96 96 96 96 98 99 98 97 98
92 90 89 93 99 101 99 99 100 100 100 100 99 100 101 99 98 100 100 99 100 100 100 100 99 100 100 99 99 102 95 78 65 63 63 66 71 76 85 95 95 87 82 82 87 94 97 93 89 85 83 85 87 88 91 96 99 99 98 97 97 97 96
89 88 92 97 100 100 100 99 100 100 100 100 99 98 101 99 96 97 99 99 99 100 100 100 100 100 100 101 99 100 101 97 88 81 76 71 67 69 79 88 89 85 88 92 95 98 99 96 89 83 80 82 85 86 89 96 100 97 93 91 90 87 85
88 87 95 101 100 99 100 100 99 100 100 99 98 98 100 100 97 97 99 99 99 100 99 99 100 100 99 100 100 100 100 101 100 98 96 92 83 76 74 79 84 87 91 96 97 96 93 87 80 76 75 77 79 82 86 94 99 98 94 94 90 82 81
94 91 94 100 101 99 100 100 99 100 101 99 95 95 98 99 98 99 99 99 100 100 98 98 100 100 99 99 100 101 101 100 100 100 99 100 99 87 72 71 81 88 90 91 91 88 82 75 71 71 73 75 75 75 77 81 88 95 99 100 93 81 83
100 97 94 97 100 100 100 100 100 99 100 98 95 94 97 99 99 100 100 99 100 100 97 98 101 99 98 99 98 99 101 99 100 101 99 100 102 88 68 66 76 83 86 86 86 84 81 77 73 72 72 74 74 72 69 69 74 82 92 100 97 86 81
100 100 95 94 99 101 100 100 100 100 99 98 97 97 99 100 99 100 100 100 101 99 94 95 100 100 99 99 97 98 101 100 99 100 99 100 94 75 59 64 73 79 83 85 85 86 84 81 78 76 73 72 71 65 61 64 68 71 81 96 101 91 81
99 101 99 97 97 97 98 100 100 100 100 99 98 98 100 100 99 99 100 99 101 101 94 90 96 100 100 99 97 98 99 100 100 100 100 102 94 72 59 65 73 77 83 86 85 83 81 77 74 73 71 69 65 58 58 67 73 75 85 98 100 93 83
99 100 100 99 94 89 91 97 99 99 100 99 98 98 100 100 100 100 101 99 100 101 96 91 95 100 100 100 100 100 100 99 101 99 95 91 83 69 62 65 71 74 76 77 77 76 72 69 68 67 65 61 58 59 65 75 82 86 94 102 98 91 85
100 100 100 100 95 86 83 87 93 97 97 94 94 97 100 101 99 100 101 100 100 101 97 93 93 94 94 95 96 98 100 99 100 100 94 82 70 60 59 62 64 65 66 67 68 67 67 69 71 70 67 64 67 74 81 87 92 94 97 100 98 91 86
99 99 100 100 99 92 82 81 89 93 88 85 88 92 96 99 98 98 100 100 99 101 100 97 96 95 95 97 97 98 100 99 98 100 100 95 87 78 72 69 65 65 68 68 65 65 72 80 81 78 76 78 84 93 96 96 98 98 94 94 97 94 88
99 100 100 99 99 98 89 84 93 95 84 78 82 85 88 94 95 94 96 97 96 97 97 98 99 99 98 99 99 99 100 100 100 100 99 100 100 97 94 91 86 84 87 86 81 81 86 88 86 87 90 92 92 95 98 99 100 99 92 89 94 95 90
99 100 101 99 98 98 90 85 91 94 85 79 84 88 89 94 96 92 92 95 95 93 93 96 99 99 98 99 100 100 100 100 100 100 100 100 100 100 100 100 99 98 99 98 96 96 98 95 94 96 99 98 95 95 98 98 96 94 92 92 96 97 89
100 99 101 100 99 98 94 87 87 90 91 91 95 97 96 98 99 96 95 98 100 97 97 99 100 100 99 100 100 100 100 100 100 99 100 99 100 100 100 99 100 100 100 100 100 100 99 99 99 100 100 100 99 98 97 94 91 93 97 99 100 97 90
100 100 100 100 100 100 99 96 93 93 98 100 99 100 100 100 100 99 99 100 101 100 100 100 100 100 99 99 100 100 99 100 100 100 100 100 100 100 99 98 98 98 97 97 99 100 99 99 99 99 100 100 100 98 96 95 95 98 100 100 100 99 95
100 100 100 100 100 99 99 100 100 99 100 100 98 98 100 100 100 100 100 100 100 100 100 100 100 100 100 99 100 101 100 100 100 100 99 98 97 96 96 95 96 96 95 95 95 96 98 99 100 100 100 100 100 99 98 98 100 99 98 99 100 99 97
100 100 100 100 100 100 100 100 100 101 101 100 98 99 100 100 100 100 99 99 100 100 100 100 100 100 100 100 100 100 100 101 101 101 100 99 97 96 95 94 93 93 94 95 95 95 95 97 99 100 99 99 100 100 99 100 101 100 99 100 100 98 97
100 100 101 101 100 100 100 99 99 100 101 100 99 100 100 100 100 100 99 100 101 100 100 100 100 100 100 100 100 100 100 101 100 100 99 98 97 98 98 98 98 97 95 94 94 95 96 97 99 100 99 98 98 99 100 100 100 99 100 100 99 98 99
98 98 99 100 101 101 101 100 100 100 100 101 100 100 100 100 100 100 100 101 101 100 100 100 100 100 100 100 100 100 99 99 98 97 95 93 91 89 89 90 92 94 96 96 96 97 99 99 99 100 100 99 98 97 98 100 100 99 100 100 99 98 98
91 94 94 95 98 100 101 101 101 101 101 101 99 98 99 100 100 100 100 101 101 100 100 100 100 100 99 98 96 92 90 88 86 85 87 89 90 87 85 83 82 83 87 92 95 98 100 100 99 100 100 100 98 97 98 100 100 100 99 100 100 99 99
84 88 91 91 93 96 99 101 102 102 102 99 97 97 98 99 100 100 100 100 100 100 100 100 101 99 97 93 89 85 82 78 73 70 69 73 80 86 88 86 82 79 80 86 92 96 98 101 100 99 100 100 99 98 99 100 100 100 100 100 100 99 99
82 85 89 90 91 92 95 98 99 100 100 99 97 97 96 97 99 101 100 99 100 100 100 101 100 98 95 92 91 91 88 81 71 62 57 59 70 84 91 90 86 83 84 90 96 97 97 100 101 99 99 100 99 98 99 99 99 100 100 99 100 100 99

ECMWFFLT1_850_rhum_054.txt.gz
RH
91 94 97 98 96 93 90 89 89 90 93 97 98 99 100 100 100 100 97 95 92 89 87 85 83 80 74 68 65 63 62 64 70 75 76 76 79 85 92 95 97 100 96 85 78 72 68 66 66 68 72 72 70 70 76 82 86 89 88 85 85 85 81
90 93 97 100 99 96 93 91 91 92 94 97 99 100 99 98 99 99 97 96 94 91 90 89 87 85 81 75 70 64 61 60 62 67 72 73 72 74 79 85 91 95 95 91 85 76 70 69 69 66 65 68 69 65 64 68 77 87 93 94 95 95 93
89 91 95 100 101 98 95 94 93 93 96 98 100 100 99 99 98 98 97 95 93 91 91 92 90 88 85 82 77 69 63 61 59 61 65 69 71 72 72 75 80 85 88 88 85 77 69 67 69 69 66 64 63 61 57 53 57 69 81 88 90 91 93
88 91 94 98 102 100 97 96 96 95 97 98 99 100 100 100 100 99 99 97 96 94 94 94 92 88 84 81 79 73 66 61 59 58 60 63 67 71 73 74 77 81 84 87 86 81 73 66 63 63 65 65 62 58 55 49 43 47 59 72 81 82 84
86 90 94 97 101 101 99 98 98 97 97 97 99 101 101 101 100 101 101 100 99 98 96 94 91 87 84 83 82 78 72 68 66 64 63 62 63 65 70 74 77 83 87 90 92 89 81 71 62 58 58 60 59 55 54 50 42 36 39 49 63 73 75
86 89 93 97 100 101 100 101 99 97 97 99 100 101 101 101 100 101 101 101 101 100 98 95 92 89 88 88 87 83 78 73 71 72 75 74 69 65 66 69 72 76 81 86 88 87 88 83 64 50 48 48 47 46 44 42 40 34 32 37 50 63 68
86 89 92 95 98 100 100 101 100 99 99 100 100 100 100 100 100 100 100 100 100 100 99 97 94 92 90 90 89 85 82 76 67 66 74 81 81 76 72 71 71 73 75 76 74 74 84 91 76 59 55 48 43 46 42 39 42 36 27 32 46 59 65
86 88 90 93 95 98 100 100 99 100 98 97 98 101 101 100 100 100 100 100 100 100 100 98 95 94 92 90 88 86 84 81 72 63 63 71 83 86 83 78 75 74 74 73 72 65 66 82 91 88 80 65 59 69 69 63 68 63 49 50 61 68 71
87 88 88 91 94 95 97 97 97 98 97 96 100 101 100 100 100 100 100 100 101 100 100 98 96 95 95 94 94 92 90 88 84 75 64 60 67 78 88 92 88 82 77 73 72 63 57 74 95 99 94 87 82 85 81 75 87 95 88 88 92 85 75
87 90 89 90 92 94 94 93 94 96 98 99 101 100 100 100 98 97 97 96 98 99 97 95 94 94 97 99 100 99 98 96 94 91 84 74 67 66 75 90 98 98 91 81 75 72 73 87 99 98 97 99 95 90 85 85 93 91 79 82 93 86 67
87 90 90 92 93 93 92 91 92 96 99 101 101 100 100 100 99 99 98 95 96 97 94 92 92 92 95 100 101 101 101 100 99 99 99 96 91 83 77 78 85 93 96 96 94 92 92 96 97 94 94 98 98 96 96 97 97 89 76 74 82 77 57
88 90 92 94 94 93 90 89 93 99 100 100 100 100 100 100 100 100 100 99 97 94 91 91 91 92 94 95 97 100 101 100 100 100 100 101 100 99 96 90 85 82 84 93 100 101 100 100 99 96 92 90 93 97 100 100 98 97 93 87 88 84 63
88 90 95 95 93 91 89 90 97 101 100 100 100 99 99 100 100 100 100 101 99 94 91 89 89 92 91 89 95 100 99 98 100 100 100 101 100 100 101 100 98 93 87 89 95 97 96 97 98 96 89 83 87 93 98 102 99 97 98 97 97 92 71
89 92 97 96 93 90 90 94 100 101 100 101 100 98 99 100 101 100 99 99 100 99 95 89 89 91 86 85 95 98 94 94 98 100 100 100 100 101 100 99 101 101 98 98 97 95 93 88 88 90 85 78 84 91 95 100 100 98 101 101 95 85 76
90 93 97 97 95 93 91 95 101 101 99 101 100 99 100 100 100 101 98 93 90 92 90 87 88 91 90 91 95 94 92 91 93 98 102 100 99 101 100 100 100 96 93 96 99 101 99 89 82 86 83 74 79 87 90 95 99 98 100 100 96 92 93
92 95 95 96 98 97 93 96 101 101 99 101 100 99 100 100 100 101 100 94 88 84 84 86 91 95 97 99 97 94 95 94 92 96 100 100 100 101 100 100 101 97 90 86 87 93 101 99 92 88 81 74 77 82 85 92 97 97 99 100 100 100 100
95 97 96 96 99 100 95 95 100 101 100 100 100 100 100 101 100 100 100 99 97 93 92 95 98 99 99 100 99 98 99 99 97 97 98 99 99 101 101 99 99 101 99 93 85 80 87 96 94 83 75 74 78 81 87 96 99 97 96 97 100 102 99
96 97 98 98 100 101 96 92 97 101 101 100 100 100 100 100 99 100 100 100 100 100 100 100 100 100 100 99 98 98 98 99 100 99 99 99 99 100 101 97 96 100 101 98 92 79 73 80 79 70 68 73 77 84 93 100 100 97 97 99 101 100 96
97 96 98 100 101 101 98 95 95 99 101 100 100 100 100 100 100 100 101 100 100 100 100 101 100 100 100 99 99 100 97 94 97 102 100 98 101 103 95 86 93 103 98 85 77 67 59 63 68 66 65 69 76 89 99 100 100 100 99 100 101 98 98
99 96 97 100 101 100 100 98 96 96 99 100 100 100 100 100 100 100 100 100 99 99 97 98 101 101 96 92 95 101 99 93 95 100 100 100 102 95 82 78 90 102 97 78 65 61 55 52 57 61 64 71 83 95 101 100 100 101 99 100 102 99 97
101 100 98 99 101 100 101 100 97 96 96 97 99 101 101 101 100 100 101 100 98 96 94 94 99 102 96 89 92 96 94 89 91 96 100 103 97 82 78 89 94 94 95 87 75 72 72 67 66 69 73 83 92 97 101 100 98 99 100 99 99 95 91
101 102 98 98 100 101 100 100 100 97 91 87 89 93 96 99 100 99 100 100 96 94 92 91 95 101 100 97 96 97 94 89 90 96 100 102 95 85 89 100 97 89 94 95 85 81 81 78 78 80 81 87 93 94 95 92 89 93 97 94 91 90 88
99 100 98 96 97 100 101 101 99 95 87 81 80 80 83 89 94 96 99 101 97 91 87 85 86 92 99 101 99 98 99 97 96 99 101 100 98 97 98 101 99 95 95 97 95 93 89 81 78 79 80 84 89 89 86 82 80 88 94 91 88 87 86
97 97 97 96 95 96 100 101 98 92 84 79 79 77 76 79 83 85 90 95 95 89 84 83 83 87 95 100 99 98 99 100 100 100 99 95 95 97 99 100 101 100 99 99 99 100 97 86 76 74 76 80 83 84 85 85 87 92 95 93 91 88 86
97 96 96 97 96 95 98 100 96 89 81 80 82 79 77 79 79 77 78 82 86 86 85 85 89 93 97 100 99 98 97 98 100 98 93 89 87 91 98 101 100 100 101 100 100 102 99 85 71 68 72 76 82 88 93 95 96 95 92 88 86 84 81
95 94 95 99 99 98 98 96 90 84 81 83 85 83 83 84 81 76 75 78 84 88 88 86 87 92 98 100 100 100 98 97 95 91 87 84 84 89 97 101 100 100 100 100 100 99 90 75 65 67 72 77 83 88 89 89 88 83 81 81 84 84 81
94 94 97 100 100 99 98 92 83 79 81 85 88 90 93 91 83 78 81 85 90 93 90 85 84 89 95 99 100 100 100 99 95 91 90 91 92 96 100 100 100 100 100 100 100 93 79 67 65 70 74 77 82 81 77 77 75 72 77 88 95 96 92
96 97 100 101 100 100 99 91 80 78 84 91 94 98 100 96 90 90 94 96 98 99 94 89 88 91 97 100 99 98 99 100 99 97 98 99 99 100 101 100 100 101 100 100 101 97 90 83 81 82 83 85 87 80 71 72 75 75 82 95 101 100 99
98 99 100 100 100 100 98 89 80 82 91 97 100 101 100 98 97 99 101 101 100 100 100 96 91 90 94 97 97 96 95 97 99 100 100 100 101 101 101 100 100 100 100 100 100 100 99 98 97 97 96 96 96 88 80 84 91 92 93 99 101 100 100
100 100 100 101 100 98 94 89 86 90 95 99 102 100 96 97 100 101 100 100 100 101 101 97 91 92 95 97 99 100 99 98 100 101 100 100 100 100 100 101 100 100 100 100 100 100 100 100 100 100 99 100 100 96 93 96 100 100 99 100 100 100 100
101 101 100 100 98 94 91 92 95 97 98 101 102 96 90 94 101 99 95 96 99 100 100 96 94 97 100 100 100 101 101 100 100 99 99 100 100 100 100 100 100 101 100 100 100 100 100 100 100 100 100 100 101 100 100 101 100 100 101 100 99 101 101
99 98 98 97 97 97 98 99 100 99 100 101 97 90 89 97 100 96 94 97 100 100 100 99 99 100 100 100 101 100 100 100 99 97 97 98 98 98 99 98 100 101 101 101 101 101 101 101 100 99 99 99 99 98 97 99 101 101 99 95 95 100 101
97 98 98 95 95 99 102 101 101 100 100 97 91 87 92 100 101 97 98 101 101 100 100 100 100 101 100 100 100 97 95 93 92 89 89 89 89 90 90 91 94 95 96 97 98 98 99 99 98 97 96 95 94 93 93 96 100 101 97 93 95 100 101
95 93 91 88 90 96 100 100 100 100 97 94 90 89 92 98 101 101 101 101 100 100 101 101 100 101 101 99 97 94 92 92 89 85 82 79 76 76 77 78 82 84 86 88 88 88 89 90 91 93 93 93 93 93 94 98 101 101 99 97 97 100 101
90 86 83 82 85 90 94 96 96 96 95 92 88 87 90 96 101 102 100 100 101 100 100 100 100 101 101 99 97 95 94 93 91 87 84 79 72 67 66 66 68 71 76 80 82 82 82 82 82 84 87 90 94 95 97 100 101 100 100 100 100 100 100
85 85 82 81 84 87 89 93 94 94 92 89 85 87 93 98 101 101 100 100 101 100 100 101 101 101 101 101 100 98 96 94 92 91 91 88 80 72 69 70 71 72 75 80 83 84 84 83 83 84 86 90 94 97 98 100 101 100 101 100 100 100 100

ECMWFFLT1_850_rhum_057.txt.gz
RH
69 70 71 71 72 73 75 80 84 86 87 88 86 84 83 86 93 97 97 98 98 98 99 98 95 91 86 84 84 81 77 70 64 64 65 68 72 79 87 92 94 97 98 95 92 84 73 66 62 58 56 55 54 53 57 63 70 77 82 83 83 85 86
68 70 71 71 71 72 74 78 84 88 90 89 86 84 85 90 95 98 99 100 100 100 101 101 101 98 93 90 89 89 86 81 73 67 64 65 67 69 75 81 83 85 89 88 85 82 78 73 68 61 56 57 57 56 55 56 60 67 76 82 84 85 86
66 68 69 70 70 71 73 77 84 90 92 91 88 86 86 91 95 99 101 101 100 100 101 101 100 97 94 92 91 89 86 83 79 74 70 66 65 66 66 70 75 78 79 80 80 77 75 73 70 65 59 58 59 58 58 59 57 59 66 73 80 83 86
65 67 68 69 70 72 74 77 83 90 91 91 91 88 86 89 94 99 101 101 100 100 101 102 100 96 94 95 96 94 90 88 83 78 74 69 65 64 64 64 68 74 80 85 84 79 73 70 68 65 61 60 59 57 57 59 59 61 62 64 71 77 80
64 66 68 69 70 73 76 79 84 91 93 92 92 90 88 91 96 99 101 100 99 100 100 101 100 98 98 99 97 94 90 88 85 80 74 70 65 62 62 63 63 66 74 83 87 87 83 77 70 66 62 60 58 55 54 56 57 61 63 62 63 67 71
63 65 66 68 71 74 78 81 87 93 94 92 92 92 92 94 95 97 100 100 99 99 100 99 99 99 101 102 99 94 88 85 84 82 78 72 64 59 58 60 61 62 65 69 76 83 87 86 79 70 64 63 62 57 53 53 52 54 59 62 62 62 63
65 66 67 68 70 75 79 82 88 93 94 93 93 93 94 96 97 98 100 100 99 99 100 99 99 100 101 102 100 95 91 89 86 84 83 77 67 58 53 54 58 64 68 69 70 73 79 83 82 77 69 64 65 65 59 56 54 51 52 55 57 58 58
69 69 68 68 70 74 80 84 87 89 91 93 94 95 96 98 100 100 99 100 100 100 101 100 100 101 100 101 102 100 97 95 92 89 85 80 74 65 56 50 51 57 65 71 74 75 77 78 79 78 72 65 68 71 65 58 54 50 48 48 49 51 53
73 72 70 69 71 74 80 83 84 87 90 92 95 97 99 99 99 100 100 99 98 97 99 99 98 98 101 101 101 101 100 99 99 97 91 84 81 76 66 56 50 50 57 66 72 75 79 82 79 76 72 69 67 66 64 65 63 50 41 40 39 40 45
76 75 72 71 71 74 81 83 83 87 90 93 96 98 98 96 95 95 97 96 93 88 91 96 95 92 97 102 101 101 101 100 100 100 97 93 91 87 81 71 61 53 52 60 71 74 76 79 76 74 76 72 65 59 59 63 61 45 36 42 44 38 37
76 76 75 74 73 74 81 84 85 89 93 96 99 100 99 95 91 91 92 95 93 87 85 92 97 95 95 98 100 101 101 100 100 100 99 99 99 97 94 90 84 74 64 65 76 83 86 86 79 75 75 71 68 62 53 55 64 67 71 79 77 62 45
77 77 77 77 75 76 80 84 89 93 95 97 99 100 100 98 96 95 94 95 96 92 86 87 92 95 95 93 95 98 100 99 100 100 100 100 100 99 98 98 98 96 89 84 84 86 91 95 93 89 81 74 69 59 50 65 87 96 99 98 95 88 69
78 78 79 79 79 80 81 85 91 95 96 99 99 100 101 99 99 100 98 98 99 98 96 93 90 88 83 82 90 95 96 95 96 99 100 99 100 100 100 99 99 99 100 99 96 92 89 87 89 96 98 90 76 55 53 80 101 100 98 98 98 98 82
80 80 81 82 84 84 84 87 93 96 98 100 100 100 100 99 98 99 99 100 100 99 100 99 97 91 78 75 85 92 93 95 95 97 100 100 100 100 99 100 100 99 99 99 100 100 98 89 79 81 94 103 96 78 74 92 102 98 98 99 98 100 92
82 82 82 87 91 89 86 89 95 98 100 101 100 99 100 99 99 100 100 99 99 100 100 99 101 96 83 78 86 92 96 99 99 99 100 100 99 99 100 100 99 99 100 99 99 99 100 100 89 76 78 90 98 98 94 95 99 99 99 97 94 95 95
83 84 85 90 95 94 89 90 96 101 100 100 100 99 100 100 100 100 100 99 100 101 100 100 100 95 88 89 94 98 100 101 100 100 101 100 98 98 98 94 90 96 101 99 100 100 98 102 101 90 81 75 74 80 85 87 90 93 95 95 92 90 92
85 86 88 92 96 97 94 92 97 101 100 99 100 99 100 100 99 100 100 100 101 100 99 100 100 98 97 96 91 90 97 101 101 99 99 100 99 99 95 83 79 91 101 99 99 101 99 100 101 99 97 88 76 74 80 86 88 85 87 94 95 93 95
86 87 91 94 97 100 98 94 98 101 100 99 101 99 100 100 99 100 100 98 99 100 99 100 100 99 101 96 84 81 89 97 99 100 101 99 98 99 90 74 73 86 95 98 101 100 99 100 100 99 101 100 95 93 93 96 96 93 93 97 99 97 97
87 88 94 98 99 101 101 98 99 101 100 100 100 99 100 100 100 100 99 98 99 98 95 97 99 99 99 99 94 90 89 90 93 98 102 98 97 97 81 65 72 84 88 94 100 100 100 100 98 98 99 99 99 99 99 101 99 99 100 100 99 99 99
89 90 95 100 101 102 101 99 99 101 101 100 101 100 100 100 100 100 99 99 101 95 86 84 90 93 93 95 97 96 94 94 95 98 101 99 100 94 74 64 75 84 86 93 99 100 100 99 98 99 99 101 98 89 89 99 102 100 100 98 97 99 100
91 93 96 100 102 102 102 100 99 101 100 100 101 100 99 99 100 100 99 99 101 96 84 77 81 87 89 90 94 96 92 88 89 95 98 100 100 90 76 76 85 88 91 98 101 100 101 100 97 93 88 91 89 72 66 81 91 91 89 85 88 97 100
94 96 97 99 102 102 102 100 100 101 100 101 101 98 94 93 94 97 99 99 101 97 86 78 80 86 88 87 92 98 93 82 83 93 99 100 99 92 86 90 96 97 98 100 100 100 101 96 89 81 72 70 66 53 50 60 69 74 74 72 80 95 101
97 98 97 99 101 102 102 102 100 100 100 100 99 95 89 85 86 93 99 100 100 96 85 76 76 82 86 86 88 96 96 88 89 97 100 99 98 97 96 97 99 100 100 100 100 99 96 91 86 80 74 67 55 43 44 52 58 62 64 69 83 95 99
100 100 99 100 101 100 102 102 101 100 100 98 94 89 85 82 84 94 100 100 100 97 83 72 73 82 90 93 96 100 96 89 92 98 101 100 100 99 99 98 100 101 100 99 101 99 94 90 88 85 82 77 64 50 45 49 54 59 64 75 89 96 96
100 101 100 101 101 98 97 98 99 100 98 93 88 83 80 79 84 94 99 99 100 98 85 76 81 93 98 98 100 99 92 85 87 92 95 96 97 97 96 94 96 100 100 99 100 101 98 94 93 92 87 81 76 70 65 62 62 67 76 86 93 95 95
101 101 101 102 102 98 94 93 94 93 90 87 85 82 81 82 86 93 95 94 95 95 91 88 93 99 100 98 97 95 91 89 90 91 91 89 89 90 88 85 88 96 100 100 98 100 100 97 97 99 95 88 83 81 78 78 78 79 84 89 91 95 96
101 101 102 102 99 95 93 91 89 87 85 83 84 86 89 92 94 94 94 94 95 97 97 98 99 100 97 97 97 94 92 95 97 97 96 94 91 88 82 80 87 96 100 100 99 99 100 99 99 100 100 98 94 84 77 79 81 82 84 88 93 97 99
101 101 102 100 97 94 93 90 87 85 83 82 86 92 97 99 98 96 97 99 100 99 99 99 100 100 99 98 99 97 96 97 98 98 100 100 97 94 90 90 95 99 100 100 100 99 99 100 101 100 99 101 98 85 77 80 83 85 88 91 94 97 96
101 100 100 100 98 97 94 88 83 82 84 87 92 97 100 100 98 97 99 100 99 99 100 100 99 100 100 99 98 97 95 96 97 98 100 100 99 98 98 98 99 100 100 100 100 100 100 99 100 100 99 101 97 86 79 84 90 94 96 96 98 95 87
100 98 99 100 99 99 96 90 84 83 87 92 95 99 101 99 97 98 100 100 100 99 99 100 100 100 100 99 97 97 97 97 99 99 100 100 100 100 99 99 100 100 100 100 99 99 100 100 100 100 99 100 99 93 90 93 96 99 100 100 101 96 84
99 99 100 100 100 98 92 87 87 89 94 97 99 101 99 94 95 100 100 98 98 98 97 99 101 101 100 100 99 98 98 99 100 100 100 100 100 100 100 100 101 100 99 100 100 100 100 100 99 101 100 99 99 98 98 99 99 99 100 100 100 98 91
101 101 101 100 98 93 86 86 92 96 97 98 98 95 91 91 97 99 93 90 95 99 100 101 101 100 101 102 102 99 98 100 100 100 100 100 99 100 100 101 102 101 100 100 100 99 100 100 99 100 100 99 99 99 99 99 99 100 100 100 100 100 98
98 96 95 93 91 90 91 96 100 100 99 98 93 87 86 94 100 94 87 91 99 100 100 101 101 100 100 100 102 102 100 100 99 96 95 94 93 93 93 93 95 98 99 101 101 100 100 100 100 100 100 100 100 100 99 99 99 100 100 100 99 100 100
92 88 87 88 91 95 98 99 99 99 100 96 89 85 88 94 96 91 90 96 100 99 100 101 101 101 101 99 101 102 99 97 96 93 91 90 87 85 82 80 81 83 86 91 96 99 99 100 100 99 99 99 99 100 100 100 99 99 100 100 100 100 100
93 90 90 92 93 93 92 93 95 96 96 92 88 88 90 91 92 93 94 97 98 98 100 101 100 100 100 99 100 101 99 97 95 93 90 89 87 84 80 75 73 74 75 77 81 85 90 94 95 95 95 94 94 94 95 95 96 96 97 99 100 100 99
96 94 92 91 89 85 84 88 90 90 91 92 90 89 88 87 90 93 95 96 97 97 97 99 100 100 100 100 100 100 100 100 98 94 91 89 87 86 83 78 74 73 76 79 81 82 84 87 90 92 93 92 90 88 87 87 89 91 94 97 100 100 100

ECMWFFLT1_850_rhum_060.txt.gz
RH
51 53 55 57 58 59 60 61 63 66 68 69 69 72 77 80 82 81 78 76 79 84 87 88 87 85 84 86 88 87 86 85 82 80 76 71 67 65 65 68 76 84 93 98 97 93 87 78 69 63 56 52 48 48 54 58 60 63 68 75 82 87 93
50 52 53 55 57 58 59 60 61 64 67 68 68 69 75 82 86 84 81 78 80 84 89 92 92 88 87 90 93 93 91 91 89 86 84 81 75 70 65 65 69 75 84 89 89 89 88 82 73 60 53 55 52 44 44 48 53 56 59 64 71 78 86
51 51 52 53 55 57 58 59 60 62 65 67 68 69 73 81 87 88 85 82 83 87 92 95 93 89 91 94 96 95 94 94 95 93 91 89 85 80 71 65 65 67 73 78 79 82 82 82 80 71 61 61 60 52 46 42 43 48 52 55 59 65 74
52 52 52 53 54 56 57 59 60 61 64 66 68 71 75 80 87 91 90 88 88 93 97 99 95 91 93 98 99 97 95 95 94 92 91 89 86 83 78 70 66 65 68 73 75 77 78 80 82 79 72 68 64 58 53 45 40 41 43 47 52 55 60
53 53 53 52 53 55 57 59 60 62 64 66 68 73 77 80 86 91 92 92 93 95 99 100 98 94 96 99 98 96 95 95 93 90 89 87 85 83 81 76 70 65 66 70 72 72 74 76 80 80 78 74 68 63 59 51 44 40 38 39 43 48 52
58 57 55 55 55 56 57 58 60 61 64 66 69 75 79 81 87 92 95 97 95 95 99 101 99 96 96 98 96 95 97 99 98 96 92 88 84 81 81 80 75 70 65 64 66 68 68 68 71 73 75 74 72 69 63 54 44 39 37 35 35 38 45
63 62 61 60 59 60 59 59 59 60 62 66 71 77 81 83 88 94 97 99 97 96 99 99 96 95 95 95 94 94 98 100 101 101 98 93 88 85 84 83 80 76 71 65 62 63 63 64 65 66 68 69 70 70 66 59 53 47 38 34 31 30 32
66 66 66 65 65 65 64 61 61 61 61 65 72 79 82 85 91 96 97 99 98 99 101 97 93 92 93 92 92 94 99 100 100 100 100 99 97 93 89 87 84 82 80 73 65 61 60 61 62 63 64 65 67 67 65 64 64 57 44 36 33 28 25
68 69 69 69 70 70 69 66 63 63 63 66 73 80 83 87 94 97 97 98 98 97 97 94 91 88 88 91 95 97 99 100 100 100 100 100 101 100 97 93 89 86 84 80 72 63 58 59 60 61 64 66 64 63 64 66 68 64 55 49 45 34 24
69 71 71 72 73 73 73 71 67 66 66 69 76 82 85 90 95 98 99 97 95 93 90 89 89 87 88 94 99 101 100 100 100 100 100 100 100 100 100 98 96 94 89 85 79 65 55 52 51 51 57 59 56 58 61 62 64 64 61 62 58 42 27
69 72 74 75 75 75 75 73 71 70 70 72 80 86 90 92 95 98 99 96 93 90 85 83 84 85 88 92 94 95 99 100 100 100 100 100 100 100 100 100 100 100 97 95 92 82 71 63 54 48 48 47 47 51 53 54 56 57 61 69 66 49 31
71 72 74 76 76 76 76 74 73 73 73 75 83 92 98 98 97 95 93 90 86 81 78 80 87 92 95 96 95 96 99 100 100 100 100 100 100 100 100 99 99 99 100 101 99 97 94 87 78 72 68 62 57 53 50 50 49 49 55 64 67 62 47
72 73 74 75 76 77 77 76 76 75 76 78 85 95 101 100 99 95 90 87 83 78 81 89 96 99 100 99 100 99 98 97 98 100 100 100 100 100 100 100 98 97 98 99 100 102 100 94 92 93 91 86 81 76 76 74 64 54 53 58 71 84 75
74 74 75 75 77 79 78 78 77 77 79 83 90 99 101 100 99 96 92 90 87 87 93 98 100 100 99 99 101 99 95 94 97 100 100 99 100 100 100 100 99 99 99 98 99 101 97 91 93 97 96 96 97 96 98 98 85 69 66 75 88 97 90
76 75 75 77 80 82 81 79 79 80 83 89 96 101 101 100 100 98 95 93 92 96 100 100 99 100 100 100 100 99 96 96 99 100 100 100 100 100 100 100 99 99 100 99 100 101 96 91 94 97 97 99 102 99 97 100 96 86 87 97 101 96 89
78 77 77 80 84 85 83 80 80 84 87 94 100 101 100 100 99 99 98 96 97 99 99 99 100 100 100 100 99 99 99 100 101 100 99 101 100 100 101 99 97 99 101 100 99 101 98 95 95 98 99 99 100 99 96 98 101 98 98 102 100 95 87
79 80 81 83 86 87 85 81 82 88 92 97 101 100 100 101 100 99 99 99 99 100 99 100 101 100 100 100 100 100 100 99 100 98 97 97 98 100 101 93 85 91 99 100 100 100 99 99 99 100 101 99 99 99 95 94 98 101 100 99 99 99 87
81 82 83 86 88 89 88 84 85 92 97 100 101 100 100 100 100 100 100 99 100 99 98 98 100 101 101 99 99 100 100 100 101 98 96 95 97 101 99 84 75 80 86 91 97 99 99 100 100 99 99 99 99 100 98 95 93 94 98 101 102 97 84
82 83 84 87 90 92 92 88 87 94 100 101 100 100 100 100 100 100 99 100 100 98 95 90 91 99 102 99 97 97 96 97 100 100 99 97 98 99 89 73 70 76 77 78 83 87 92 99 101 100 100 100 100 99 100 99 94 87 87 94 98 94 90
82 83 86 90 92 93 95 94 92 96 102 101 100 100 100 100 100 100 100 100 99 98 94 85 80 84 88 89 92 93 92 93 95 98 101 99 100 99 88 75 75 77 75 75 76 78 87 96 100 100 100 100 100 100 100 101 100 95 90 92 95 93 98
83 85 88 91 94 95 98 99 98 99 101 101 99 100 100 100 100 100 100 100 97 95 93 86 78 75 73 73 80 88 89 88 88 90 96 99 100 100 95 92 90 84 81 86 86 85 87 91 97 101 101 98 97 98 100 99 100 99 97 99 99 96 100
85 88 90 93 96 98 100 101 100 100 102 101 100 100 100 100 100 100 99 100 98 95 92 87 81 76 71 69 75 82 85 86 87 90 95 98 98 97 96 98 97 92 93 96 94 91 90 90 95 99 100 100 95 90 93 98 100 97 93 97 101 98 102
88 92 93 94 97 100 101 100 99 100 101 101 100 100 100 100 100 100 100 100 97 94 95 93 85 77 73 73 74 79 85 88 91 96 98 98 98 98 98 99 99 98 99 99 96 94 94 96 101 101 100 100 93 84 82 87 90 88 85 89 96 100 103
92 97 96 95 98 101 100 100 100 100 100 100 100 100 100 100 100 100 100 99 95 92 95 96 88 79 75 74 75 82 92 96 96 100 100 95 93 97 98 99 99 99 100 99 98 99 99 99 97 91 84 85 89 89 85 81 79 80 77 75 80 92 101
95 100 99 98 100 101 100 100 100 100 100 100 100 99 99 99 98 96 97 99 99 96 95 96 94 88 81 79 83 93 100 101 99 99 95 86 82 85 88 91 94 98 100 100 99 100 101 95 84 73 70 81 95 99 95 88 81 77 72 64 61 70 80
97 101 100 99 101 101 100 100 101 101 101 101 100 100 100 98 94 91 94 100 101 98 96 96 98 96 89 87 94 100 100 99 98 94 90 85 82 82 80 80 83 90 97 100 98 97 93 84 78 77 83 93 101 100 96 94 88 78 68 57 49 51 58
99 101 101 101 101 100 100 101 101 100 99 99 100 100 97 91 88 89 95 100 98 95 96 97 97 97 95 95 99 101 99 99 98 95 92 91 91 90 88 84 82 85 91 98 100 98 91 85 86 92 97 99 100 99 98 98 96 92 81 66 57 55 55
100 101 101 101 100 100 100 99 98 96 94 94 96 96 95 92 93 95 98 98 96 97 99 99 99 99 100 100 100 100 100 99 99 99 98 96 96 97 97 95 90 86 88 94 98 100 98 97 97 99 100 100 100 100 100 99 99 100 96 87 83 79 70
101 101 101 100 100 100 97 93 91 91 91 93 96 97 98 98 99 100 99 97 98 100 100 99 99 99 99 100 100 99 100 99 99 99 99 98 97 98 100 100 97 92 91 94 97 99 100 100 100 99 99 100 100 99 100 100 100 99 97 96 98 93 82
101 101 101 100 100 100 98 92 90 89 91 97 100 100 100 100 99 100 100 98 99 100 100 99 100 100 100 100 100 99 99 100 100 100 99 98 98 98 99 101 100 98 97 98 99 100 100 99 100 100 99 100 100 100 100 100 100 99 99 99 99 93 83
101 100 101 100 98 99 100 98 94 93 96 100 101 100 100 100 100 100 101 100 99 100 100 100 99 99 98 97 97 99 100 100 100 100 100 100 100 99 100 100 100 100 100 100 100 100 100 100 100 100 100 100 100 100 100 100 100 100 99 98 97 94 89
100 100 100 100 99 100 101 99 96 97 99 100 100 100 99 99 100 101 100 99 99 99 100 100 99 99 98 97 98 100 101 100 100 100 100 100 100 100 100 100 100 100 100 100 100 100 100 100 100 100 100 100 100 100 100 100 100 100 100 99 98 98 97
100 101 100 100 100 100 99 99 99 100 100 100 100 100 96 95 98 97 92 93 98 100 100 101 100 100 98 97 100 101 100 99 100 100 100 100 99 98 98 96 97 98 98 99 101 100 100 100 99 99 100 100 100 100 100 100 100 100 100 100 100 100 100
99 100 99 99 100 98 97 99 101 101 101 101 98 93 90 91 94 91 86 89 97 100 101 101 102 101 99 98 101 102 100 100 101 100 100 100 97 94 93 90 88 88 88 90 93 96 98 100 100 100 101 100 100 100 99 100 100 100 100 100 100 100 100
97 97 97 98 99 98 98 101 102 102 102 97 88 84 87 91 93 90 87 89 95 99 101 101 101 101 100 100 102 102 100 100 100 101 101 101 98 95 93 90 87 84 81 80 81 83 86 90 93 96 99 100 101 101 100 100 100 100 100 100 99 100 100
98 97 97 98 99 99 100 102 103 101 97 88 81 84 91 92 90 89 90 93 97 101 101 100 100 101 102 102 102 102 100 100 100 100 102 101 99 97 96 95 94 90 85 82 81 81 82 83 83 85 87 90 93 96 97 98 99 99 100 100 100 101 100

ECMWFFLT1_850_rhum_063.txt.gz
RH
43 45 47 49 50 51 52 53 55 57 58 60 61 63 65 67 69 70 69 69 69 72 76 76 74 74 77 83 87 87 87 86 85 85 86 90 94 92 81 74 82 89 89 89 87 82 74 68 78 87 84 77 71 68 69 69 68 70 74 83 91 97 100
44 46 48 50 51 51 52 52 53 55 57 58 60 62 64 65 66 67 68 68 68 69 75 78 76 74 77 82 86 87 88 89 89 88 88 87 90 92 87 80 80 82 86 88 83 80 73 63 63 70 73 74 69 62 60 60 61 63 65 69 76 86 95
46 47 49 51 53 53 53 52 52 53 54 56 58 60 62 63 64 64 66 67 67 68 74 79 77 76 79 84 86 87 88 91 92 92 92 89 87 89 88 86 86 86 87 89 87 84 74 62 59 60 62 67 65 60 56 51 48 51 54 59 64 70 79
49 49 50 51 52 53 53 53 53 54 54 55 57 58 60 62 62 63 64 65 67 69 73 78 78 77 81 86 87 86 87 91 92 92 93 92 89 89 89 89 92 94 93 93 94 93 82 68 61 59 58 62 63 62 59 52 46 43 42 46 52 57 64
51 51 52 52 52 53 53 53 54 54 54 54 56 57 59 60 61 63 64 66 68 70 75 80 82 82 85 88 87 83 84 88 88 90 92 92 91 90 90 89 90 94 96 98 100 99 92 81 70 64 61 60 62 64 61 57 53 48 42 39 39 44 51
52 52 53 54 54 55 55 55 55 56 55 55 56 56 58 59 61 63 65 67 68 72 79 84 84 84 86 90 88 82 83 85 86 88 91 91 92 94 96 94 90 89 91 95 98 96 95 88 75 68 64 57 58 63 61 59 56 51 48 42 35 33 36
54 53 54 55 56 58 58 59 60 59 59 59 57 58 59 59 60 62 65 69 71 75 84 87 86 84 86 88 85 79 83 86 85 87 88 89 95 100 101 100 97 94 93 95 96 95 96 90 75 69 67 57 53 58 59 58 59 54 49 46 41 35 31
56 55 55 56 58 59 61 62 64 64 64 63 62 62 62 62 63 65 67 70 73 79 88 92 91 89 86 85 81 80 85 87 86 89 89 90 97 101 101 101 100 100 99 97 97 94 93 91 82 76 75 66 59 60 57 55 58 56 50 48 45 40 34
58 58 58 58 59 60 61 63 65 66 68 67 67 68 68 67 67 67 69 73 77 82 88 92 94 92 86 84 84 85 89 89 92 97 95 92 97 100 100 100 100 101 101 100 99 94 91 95 93 85 81 74 62 55 52 52 56 55 52 53 50 41 36
61 61 61 61 62 61 62 64 65 69 71 71 72 73 74 74 73 71 72 76 81 84 88 90 91 90 89 89 89 89 92 95 99 100 97 95 97 99 100 100 100 100 100 100 100 96 94 98 95 84 79 70 57 53 56 57 57 55 52 54 50 40 34
63 63 63 64 64 64 64 64 67 71 73 75 77 78 78 77 75 75 78 81 83 86 89 91 89 88 89 89 88 87 91 98 101 100 99 98 98 97 97 98 100 100 100 100 100 99 99 100 94 88 88 82 70 65 61 55 53 53 54 54 46 36 32
65 66 67 68 68 68 67 66 69 73 75 77 80 83 86 84 79 77 80 86 89 89 91 91 88 85 84 85 89 92 96 100 100 100 100 100 99 99 97 96 97 98 101 100 99 99 100 98 95 93 95 93 89 84 77 71 66 60 54 47 36 34 41
67 68 70 70 70 70 69 69 71 74 77 79 80 84 93 96 92 87 86 89 91 92 93 90 84 82 82 88 95 99 100 100 100 100 100 99 100 100 99 98 96 95 98 99 100 102 98 96 98 94 91 93 96 98 97 94 85 74 70 61 47 46 51
69 70 72 72 71 71 71 71 73 75 77 80 82 85 93 100 101 97 95 95 93 91 90 84 80 82 87 94 99 100 100 100 99 100 100 99 100 99 99 101 99 98 98 97 99 99 92 91 96 93 91 98 101 100 100 99 92 87 93 94 83 75 64
73 74 75 74 74 73 72 72 74 76 78 81 84 87 92 98 101 100 100 100 96 89 84 81 84 90 95 97 99 99 100 99 99 100 100 99 100 100 99 100 99 99 99 99 99 96 88 88 92 92 94 100 101 99 100 101 97 94 98 101 99 98 88
75 77 77 77 78 77 74 73 74 77 79 83 86 90 94 99 100 100 100 99 97 88 80 82 92 99 100 99 99 100 100 100 100 100 99 99 99 100 100 100 100 99 99 99 100 98 91 87 89 94 98 100 101 100 99 100 100 99 102 100 98 102 99
77 78 79 80 80 78 76 74 75 79 83 86 89 93 98 101 100 100 100 100 96 86 81 89 98 100 100 99 100 100 98 98 100 99 99 101 100 97 95 93 94 99 101 100 101 100 96 91 91 95 98 100 102 100 99 101 100 97 99 100 100 101 98
81 80 79 80 80 81 79 76 77 83 87 88 91 96 101 101 100 100 100 99 94 85 87 97 100 99 100 99 100 100 96 96 100 100 98 96 94 92 87 80 81 90 95 98 100 100 99 97 96 96 96 98 101 100 100 100 95 92 94 99 102 100 99
83 81 80 80 80 82 82 79 80 85 89 90 93 99 102 101 100 100 100 99 96 92 96 101 99 99 101 99 100 101 96 94 98 99 98 95 95 96 89 80 81 88 93 97 98 99 99 96 94 96 98 99 99 100 101 100 96 95 96 99 98 94 100
84 84 83 82 82 82 83 83 83 86 90 92 96 100 102 100 100 100 100 100 99 98 100 101 97 96 97 96 98 100 99 97 97 98 100 98 100 101 91 85 91 98 98 99 99 99 100 97 95 97 99 100 99 99 100 99 100 100 98 101 99 93 100
85 86 85 84 84 83 83 85 86 87 92 96 99 102 102 100 100 100 99 99 100 99 101 99 92 88 87 87 86 89 94 94 90 94 101 99 98 99 93 91 98 100 99 100 100 100 100 100 100 100 99 100 100 100 100 98 100 100 97 101 101 95 102
86 87 86 85 85 84 84 88 89 88 93 99 102 103 102 100 100 99 99 100 100 100 100 98 92 87 86 83 79 79 83 82 79 88 99 97 94 96 97 97 99 99 99 100 100 100 99 96 93 92 94 97 96 97 100 99 99 101 98 100 101 96 104
87 87 86 86 86 86 87 90 92 91 95 100 102 102 102 101 98 97 99 100 100 99 99 97 94 90 88 85 81 78 78 77 75 82 90 91 92 98 100 100 99 100 100 100 99 100 100 96 91 86 84 82 79 87 99 100 99 102 99 100 102 97 101
87 87 87 87 88 89 91 94 96 96 98 100 101 101 101 100 97 97 99 100 100 100 98 96 94 92 90 87 83 80 78 76 76 83 90 94 97 100 100 100 100 100 101 100 100 100 98 98 98 91 81 75 79 90 101 100 99 100 99 100 101 99 101
86 86 88 90 90 91 95 98 99 99 98 99 101 101 100 100 99 99 100 100 100 100 98 96 96 97 96 93 89 86 82 78 81 91 97 98 99 100 100 98 96 95 97 98 99 99 98 99 99 92 86 89 95 99 99 98 97 97 97 100 100 99 102
86 87 91 92 92 95 99 100 99 98 97 99 101 101 100 100 100 100 99 99 99 100 99 99 100 100 99 98 97 95 90 85 88 97 101 99 99 100 99 95 89 86 88 90 91 93 95 95 95 93 95 99 100 99 97 98 99 97 97 99 99 99 99
87 89 93 94 95 98 101 100 98 98 98 99 100 98 97 96 97 98 97 96 96 97 98 98 97 96 96 97 97 98 96 93 95 100 100 100 100 98 95 93 89 86 87 87 87 88 89 89 90 91 91 93 94 96 99 100 100 99 97 96 97 97 93
89 92 96 98 99 101 101 99 99 98 97 98 99 98 97 96 96 97 96 94 93 93 94 94 94 96 98 99 99 100 100 99 98 100 100 100 99 97 95 93 91 91 92 91 89 88 88 90 92 90 85 84 84 86 90 96 100 99 96 96 97 94 83
90 94 99 102 101 100 99 99 101 100 99 100 101 99 98 97 96 94 92 92 94 94 93 95 98 99 99 98 97 99 100 99 99 99 99 99 99 99 97 95 93 95 97 96 94 93 92 95 99 97 92 89 86 81 83 92 99 100 98 99 100 95 80
92 97 101 101 99 98 98 98 99 99 100 101 100 99 99 99 97 95 94 95 98 98 97 99 100 99 98 97 98 98 98 99 100 99 97 98 99 100 99 98 96 96 97 97 97 98 98 99 101 100 98 98 96 91 91 95 99 100 100 100 100 99 92
97 101 102 101 99 100 98 95 93 96 99 101 100 99 100 100 99 99 99 99 100 100 100 99 99 99 99 99 100 100 99 100 100 98 97 98 100 100 100 100 99 99 99 100 100 100 100 100 100 100 100 100 99 99 98 99 99 100 100 100 99 100 100
100 102 102 99 97 98 99 96 95 97 100 100 100 100 100 99 100 100 100 100 99 99 100 100 99 100 100 100 100 100 99 99 98 97 98 100 100 100 100 100 100 100 100 100 100 99 100 100 100 100 100 100 100 100 100 99 99 100 100 100 100 100 99
100 100 101 99 96 97 99 99 98 99 100 100 100 100 100 100 100 98 98 100 100 99 100 100 99 100 100 99 99 98 97 98 98 98 100 100 99 100 100 100 100 100 100 100 100 100 100 100 99 100 100 100 100 100 100 99 99 100 100 99 100 100 100
100 100 100 100 100 99 100 100 100 99 100 100 100 100 99 99 97 93 92 98 101 101 101 101 100 100 101 100 99 99 99 100 100 99 100 100 99 100 101 100 100 98 97 97 97 97 99 100 100 100 100 99 100 100 100 100 100 99 100 100 99 99 100
99 100 100 99 100 100 99 100 100 100 101 100 98 96 95 95 93 90 91 94 96 97 99 101 100 101 101 100 100 101 101 101 100 100 100 100 100 101 101 100 98 95 92 90 89 88 89 92 95 98 100 100 100 100 99 100 100 99 100 100 100 100 100
99 100 100 100 100 100 100 100 100 101 101 97 93 91 91 90 90 91 91 91 91 94 98 101 100 100 100 100 100 100 100 100 100 100 100 100 100 101 101 100 99 97 94 91 88 84 83 83 84 88 91 93 96 99 100 100 101 100 100 100 100 100 99

ECMWFFLT1_850_rhum_066.txt.gz
RH
35 40 43 45 46 46 46 48 50 53 57 58 59 60 62 64 65 66 69 71 73 73 74 76 77 76 78 80 82 86 90 90 87 86 86 93 99 97 96 97 97 99 99 94 89 84 75 70 74 84 94 99 100 99 93 86 84 86 91 97 99 100 100
37 42 45 47 48 49 49 50 52 55 58 58 57 57 59 61 62 65 68 69 71 72 73 75 75 74 76 80 82 82 85 88 91 91 90 91 96 98 97 99 100 100 100 99 94 87 81 72 64 61 69 80 91 97 95 90 84 81 83 88 93 97 100
39 43 48 50 51 51 52 53 54 57 59 58 56 56 56 57 58 62 66 68 69 70 72 74 75 73 74 80 83 81 80 82 84 84 84 85 89 94 97 98 100 101 100 101 99 93 88 81 75 66 55 50 59 75 84 87 85 81 78 79 82 88 94
42 46 50 53 54 54 54 55 57 59 59 59 57 56 55 56 56 58 62 66 68 69 70 73 73 71 71 77 83 82 81 83 84 83 82 83 85 87 91 95 99 101 100 100 100 99 94 85 80 79 69 53 45 49 58 65 69 71 72 73 74 76 82
46 50 52 55 56 57 57 57 58 59 59 59 58 57 56 56 57 57 59 63 65 67 67 68 70 70 70 75 81 83 83 84 85 84 83 84 82 82 86 91 97 100 101 100 100 99 99 93 86 84 81 72 61 50 49 54 57 57 59 63 66 67 71
50 54 55 57 60 61 60 59 59 60 60 60 59 58 58 57 57 57 58 60 62 64 66 67 69 70 71 75 81 84 85 86 86 86 86 84 79 79 85 90 94 99 101 101 101 100 100 97 93 89 81 74 70 62 53 53 54 52 48 49 53 57 61
54 58 58 60 63 64 63 62 61 62 62 62 61 60 59 58 58 58 58 59 61 63 65 66 67 70 73 78 84 87 88 88 87 88 88 85 78 78 85 88 92 98 100 101 102 102 101 100 98 94 87 81 81 78 68 59 58 57 51 46 44 44 47
58 62 61 62 65 67 67 65 63 63 63 63 63 62 61 61 61 62 63 62 63 63 64 64 65 68 75 81 86 90 92 91 90 90 89 86 80 78 84 90 94 98 100 101 102 101 101 102 100 98 95 88 84 87 86 76 68 62 55 52 47 39 38
62 66 65 65 68 69 69 68 66 65 64 63 64 64 64 66 66 67 69 68 67 67 65 63 62 66 76 85 90 93 93 90 90 90 89 87 81 80 86 93 96 99 101 100 100 101 100 101 102 101 99 96 90 88 85 78 73 66 58 58 56 42 34
66 71 69 69 71 70 71 71 69 67 66 64 65 65 66 69 73 74 73 73 73 73 69 64 62 66 78 88 94 96 93 89 90 92 91 87 83 85 92 96 95 94 97 100 100 100 100 101 102 101 100 100 98 94 90 85 85 83 76 76 74 59 43
69 74 74 73 73 71 72 73 70 68 69 68 70 72 71 71 73 77 77 77 79 78 73 68 64 67 79 89 93 93 90 88 92 94 91 88 90 94 97 98 97 93 94 99 101 100 99 97 96 97 98 99 99 100 100 96 92 90 86 86 86 78 64
70 77 79 77 75 72 73 74 72 71 73 73 75 83 86 81 76 77 78 80 82 81 77 72 68 70 78 85 88 88 89 91 94 94 92 93 98 100 98 95 95 95 96 99 99 97 94 90 90 91 93 96 99 101 101 100 98 96 93 93 92 89 85
72 79 83 80 76 74 74 75 75 76 77 77 79 89 97 96 90 85 83 84 85 85 80 74 72 74 80 84 86 88 89 90 91 94 96 98 100 100 99 97 96 95 97 98 99 99 93 87 88 91 90 93 99 101 100 101 100 99 99 100 96 92 89
75 83 86 82 78 78 77 76 77 79 81 82 85 92 99 101 100 97 94 93 91 90 86 80 79 81 83 85 86 86 88 90 93 97 100 100 101 100 100 100 99 98 99 98 98 98 91 83 83 86 89 95 100 101 100 100 100 100 101 100 94 91 91
79 87 89 84 81 81 79 78 80 82 82 82 85 92 98 101 101 100 99 98 97 95 89 86 87 89 88 88 86 84 87 92 95 98 100 100 100 100 100 101 100 98 100 100 97 92 87 83 83 85 92 99 101 102 101 100 100 100 100 100 96 95 94
82 90 91 87 84 83 81 81 83 85 85 84 86 93 99 100 100 100 100 100 100 99 94 90 94 96 92 88 85 84 90 96 97 98 100 101 100 100 101 99 95 94 96 98 97 93 87 84 85 88 93 98 100 101 101 100 101 100 100 101 99 99 95
85 93 93 89 86 85 84 85 85 86 87 87 90 97 101 101 100 101 101 100 100 101 96 91 94 96 90 85 84 87 92 98 99 99 99 99 100 101 101 96 93 95 98 98 98 98 94 91 92 94 96 98 99 100 100 101 100 97 99 101 98 101 101
90 97 95 91 88 87 87 86 85 86 88 89 92 97 101 101 100 101 101 100 101 101 96 91 91 91 88 88 92 94 96 99 100 99 99 99 99 101 101 96 94 95 97 97 98 98 98 97 98 98 99 100 100 100 101 100 97 95 99 102 100 100 102
96 100 96 91 88 88 88 88 86 87 89 90 91 96 101 101 100 101 101 100 100 101 99 96 92 88 90 95 98 96 97 99 98 98 100 99 99 101 98 92 91 92 94 97 96 95 95 96 97 98 100 100 99 100 101 98 97 99 100 100 101 99 100
101 101 96 91 88 88 89 91 89 87 89 92 93 97 101 101 100 101 101 100 100 100 100 100 94 89 92 99 99 93 91 93 93 95 98 99 100 100 93 87 90 94 97 100 99 97 98 98 97 98 100 101 99 99 101 99 98 101 100 99 101 100 99
103 101 96 91 90 90 91 91 90 89 90 92 95 98 101 100 100 101 100 100 101 100 101 101 95 91 95 101 100 95 92 93 93 92 94 96 97 94 88 87 92 93 95 100 101 99 98 97 99 101 100 100 101 100 100 100 99 100 100 100 101 99 101
103 101 97 94 93 92 91 91 91 90 89 91 95 98 101 100 100 101 100 100 100 100 100 101 98 97 99 100 100 100 99 99 98 94 92 94 92 89 90 95 97 94 95 98 99 98 94 90 95 101 100 99 101 100 100 100 100 100 99 100 100 99 101
103 101 98 96 94 93 91 91 92 90 89 91 94 97 100 101 100 100 100 100 100 100 100 100 100 101 98 92 92 98 100 100 99 96 92 91 87 85 90 98 100 98 98 99 98 99 97 91 93 99 100 100 100 99 99 100 100 101 100 99 100 100 100
103 101 99 97 94 93 93 92 92 91 89 91 94 97 99 101 101 100 100 100 100 100 100 100 100 101 96 87 87 93 95 96 97 97 93 89 86 82 84 94 101 100 99 100 99 99 100 97 95 94 94 95 97 98 99 99 99 101 101 100 100 101 101
103 101 99 98 96 94 94 94 93 92 91 92 95 98 99 101 101 100 100 101 99 98 99 100 100 102 97 86 81 84 88 91 96 97 94 89 86 83 82 90 100 100 99 101 100 100 101 99 95 93 93 95 99 101 100 100 100 100 100 101 100 100 101
103 102 100 99 97 96 96 97 96 93 93 95 98 100 102 102 101 100 99 100 99 97 97 99 100 101 99 92 86 87 93 96 98 99 97 92 93 95 93 95 100 101 100 100 100 99 101 99 95 96 98 98 100 101 99 100 101 100 100 101 100 100 101
103 102 100 99 99 98 99 100 98 95 96 99 101 102 103 102 100 100 101 101 101 100 99 100 100 100 100 99 97 97 100 101 100 101 98 94 97 101 101 100 101 100 99 101 101 100 101 100 99 100 99 96 97 100 101 100 100 100 100 100 100 101 101
102 102 100 100 101 102 102 101 99 97 97 100 101 101 102 102 100 100 100 100 100 100 100 99 100 100 100 101 100 100 99 98 97 97 94 92 96 100 101 100 100 100 100 100 98 97 96 96 98 100 100 98 98 100 100 99 100 101 100 100 100 100 101
102 101 101 102 102 102 102 101 98 96 95 97 101 102 101 100 100 101 101 101 101 100 99 99 98 97 97 98 96 95 96 95 94 96 96 96 99 100 101 101 100 100 101 98 95 95 97 96 96 98 99 100 100 99 98 96 96 98 100 101 100 100 99
101 101 101 102 102 101 102 101 99 98 97 98 101 104 102 100 101 100 97 95 94 94 95 99 100 98 98 98 95 94 97 97 98 100 100 99 99 98 98 99 99 100 100 98 96 98 99 99 98 96 97 99 99 99 100 96 90 92 99 101 100 99 98
100 101 102 102 102 101 101 102 101 100 100 101 101 102 101 101 101 99 94 93 94 94 96 99 101 100 100 101 99 98 99 98 99 101 99 97 98 98 96 97 99 100 100 99 99 100 99 99 99 97 97 100 100 99 101 99 91 92 99 101 99 100 100
100 101 101 101 103 103 102 103 101 98 97 100 101 101 101 100 100 99 98 98 100 100 99 100 101 100 100 101 101 101 100 99 100 101 99 98 100 100 98 98 101 101 100 100 101 101 100 100 100 100 100 100 100 99 100 100 98 97 100 101 100 100 100
101 102 101 100 101 103 101 98 97 96 97 99 100 100 99 100 101 101 101 101 101 100 101 101 99 98 99 100 101 100 100 100 101 101 100 100 99 97 96 99 101 100 100 101 100 100 101 101 100 100 100 100 100 100 100 100 100 100 101 100 100 101 100
100 101 101 100 101 102 99 95 94 97 99 100 100 100 101 99 98 97 95 95 95 96 99 100 99 98 98 100 101 100 100 101 100 98 98 98 97 96 97 99 101 100 100 100 100 100 102 102 101 100 100 100 100 100 100 100 100 100 100 100 99 100 101
100 100 100 100 100 100 99 98 97 98 100 101 100 100 97 92 89 89 89 90 92 96 99 100 100 100 100 100 100 100 100 98 95 94 95 96 96 98 99 98 99 100 100 101 101 100 99 98 99 100 101 100 100 100 100 100 100 100 100 99 98 99 101
100 100 100 101 100 99 99 100 101 100 101 100 95 91 91 92 93 94 94 94 96 99 101 101 100 100 100 100 100 100 99 98 97 97 98 98 98 100 100 98 99 100 101 101 100 96 93 91 91 93 96 98 100 101 100 100 100 100 100 100 99 98 99

ECMWFFLT1_850_rhum_069.txt.gz
RH
60 55 48 40 32 28 34 45 54 57 58 58 56 56 58 62 65 67 68 67 68 68 65 65 68 67 68 71 73 74 75 75 75 74 74 77 79 79 78 80 87 92 92 87 80 73 69 65 60 61 66 72 82 90 89 83 78 76 77 80 86 92 96
65 63 57 49 40 34 36 48 58 61 62 62 61 60 60 63 67 69 69 70 70 70 68 67 67 67 70 72 71 73 74 76 82 84 81 81 82 80 81 85 88 92 96 96 92 84 78 73 67 63 58 56 61 74 85 88 84 79 77 78 83 88 91
67 68 65 57 48 41 40 50 62 66 66 66 64 63 64 67 70 71 72 72 71 71 73 73 71 70 73 75 72 72 72 74 84 93 93 91 90 88 89 93 93 94 98 99 98 94 87 79 72 68 66 62 56 55 63 74 84 86 81 77 79 84 88
68 71 71 65 57 50 46 51 63 70 70 69 67 67 69 73 75 75 75 74 71 71 72 76 79 79 77 75 74 72 70 70 76 86 93 95 94 93 95 97 97 95 97 99 99 97 93 87 79 71 71 72 66 58 54 56 66 79 84 81 78 79 84
69 73 75 71 65 59 53 53 64 73 74 73 73 73 75 78 80 80 78 75 73 69 70 76 82 86 84 78 72 69 68 67 68 75 85 90 89 89 91 94 94 94 96 98 99 98 96 93 87 79 76 75 72 68 62 54 52 61 73 79 80 79 79
72 75 78 77 72 67 59 56 67 77 78 77 78 80 84 85 85 83 81 82 80 75 77 83 82 85 91 85 71 66 66 65 67 72 78 83 85 85 89 91 91 89 92 96 99 100 99 96 92 87 83 79 76 73 67 60 54 54 59 66 73 78 77
75 77 81 82 79 73 65 62 71 80 81 80 82 84 87 90 91 90 87 89 87 79 79 84 81 83 92 88 71 64 65 64 66 72 76 80 84 86 90 92 87 81 82 88 95 99 100 99 97 94 90 86 83 80 78 76 71 64 55 52 56 63 70
80 81 84 86 84 80 72 69 76 82 83 83 85 87 89 93 96 96 94 94 91 83 77 77 76 78 82 80 69 63 63 64 66 72 77 81 83 86 89 91 85 76 72 78 89 97 99 100 100 98 95 91 88 87 83 77 74 70 62 55 51 50 55
86 85 87 89 89 84 78 74 79 84 85 86 88 88 91 97 100 99 98 96 94 89 80 73 71 71 71 70 67 65 65 65 67 73 79 82 84 85 88 89 84 75 70 75 86 94 97 100 101 100 99 96 93 91 85 76 75 79 78 74 67 57 51
91 90 89 91 92 88 82 78 80 85 87 89 92 93 93 97 101 102 101 96 92 88 81 75 73 70 68 68 68 68 68 68 71 78 84 86 86 86 87 86 82 73 69 74 82 88 95 101 102 100 100 98 94 93 91 86 85 84 81 82 82 75 66
96 93 92 93 94 90 85 80 79 85 90 95 99 99 97 98 98 99 98 94 88 83 80 79 80 78 74 71 70 67 67 72 80 86 90 90 90 89 87 85 81 72 69 73 78 83 91 97 98 97 98 99 97 97 97 96 94 90 85 86 88 85 77
99 97 96 95 95 93 88 82 80 86 94 99 101 100 100 100 96 92 91 88 83 80 79 81 87 90 85 76 71 67 67 76 88 93 95 94 93 92 87 84 82 75 71 73 78 83 86 89 93 94 92 92 95 98 99 100 99 97 93 92 93 94 87
100 99 99 97 96 95 91 84 84 90 97 101 101 100 100 100 98 94 92 88 84 82 84 85 91 99 97 84 74 69 70 80 91 96 98 97 97 96 91 87 83 78 77 80 85 87 86 85 89 90 86 87 93 97 99 99 99 97 97 96 95 92 84
101 101 101 100 98 96 93 87 86 93 99 102 101 100 100 100 100 99 97 95 92 88 90 91 95 101 99 89 80 72 72 83 93 97 99 99 98 98 96 91 85 83 86 89 88 85 81 83 87 86 87 90 93 96 97 98 99 99 99 99 93 89 84
101 101 101 101 97 96 95 89 87 94 101 102 101 100 100 100 100 100 99 99 98 96 95 96 98 100 96 91 86 75 72 83 94 97 98 98 97 97 94 90 86 86 87 86 82 75 73 82 86 86 92 97 97 98 98 99 101 100 100 100 96 96 95
100 100 101 101 98 98 97 90 89 98 102 102 102 100 100 100 100 100 100 99 100 100 98 98 99 100 96 92 87 78 75 85 94 98 98 97 96 94 90 86 84 85 87 87 84 75 70 78 85 88 95 100 98 98 98 100 101 99 100 101 97 96 94
100 100 101 102 100 99 96 90 91 99 103 103 102 100 100 101 100 99 100 100 100 100 100 99 99 99 97 93 86 78 81 91 98 97 96 95 96 94 89 87 86 90 95 95 91 87 84 86 91 94 99 101 99 96 97 100 99 95 98 101 99 98 96
101 100 100 103 101 98 94 90 92 99 102 101 101 100 100 100 100 100 99 100 100 99 100 100 99 99 99 95 85 81 90 99 100 98 97 97 99 95 88 86 88 93 98 95 90 93 98 99 98 99 99 100 100 99 99 97 91 92 99 100 99 100 98
101 100 100 102 102 99 96 93 95 100 102 100 100 101 100 99 100 100 99 100 100 100 100 100 99 100 100 95 89 90 98 101 100 100 99 97 100 98 91 90 94 97 98 93 85 87 94 96 96 99 100 100 99 100 100 97 92 95 102 100 99 100 99
100 100 100 101 102 101 98 95 97 101 101 99 100 101 100 100 100 100 100 100 100 100 100 100 100 100 98 95 95 97 100 101 100 100 96 94 99 98 91 92 98 98 96 92 86 87 91 92 94 98 100 100 100 100 100 99 98 98 99 99 100 100 99
100 100 100 100 102 102 99 97 99 102 100 99 101 101 100 100 100 100 100 100 100 100 100 99 101 99 95 94 97 99 99 97 94 93 94 95 96 91 86 92 99 99 97 98 97 97 98 98 99 99 98 98 100 100 98 97 97 96 95 97 99 100 100
100 100 100 100 101 101 100 99 101 101 100 99 101 102 102 101 100 100 100 100 100 100 99 99 101 100 96 93 95 99 100 93 87 90 96 97 94 88 87 91 94 94 94 95 95 97 99 100 100 99 94 92 95 96 95 93 93 93 91 90 92 97 100
100 100 100 100 101 102 101 100 101 101 100 99 100 102 102 101 100 100 100 100 100 100 100 100 98 99 100 95 91 96 100 94 89 95 100 97 93 93 94 94 94 95 96 93 90 90 92 93 95 95 91 87 88 90 91 94 96 96 93 89 88 90 92
100 100 100 99 100 102 101 100 100 100 99 99 99 100 101 100 101 100 99 100 100 99 100 100 97 99 102 96 89 92 99 96 93 98 101 98 95 97 98 98 98 97 96 97 96 92 90 88 85 83 79 76 81 89 94 97 99 100 99 96 91 91 91
100 100 100 100 100 101 101 100 100 99 99 99 98 97 98 99 101 100 99 100 100 99 100 100 99 100 100 96 92 94 99 100 98 100 101 99 98 99 99 98 97 93 92 97 100 98 95 91 83 77 74 76 84 95 99 100 100 100 100 100 97 97 98
100 100 100 99 100 101 100 100 101 99 98 97 96 95 95 98 101 101 100 100 100 100 100 100 100 100 97 95 96 100 102 101 100 100 99 97 99 101 98 94 94 96 96 98 100 100 99 98 94 89 87 87 92 98 100 100 100 100 99 101 100 99 100
100 100 100 100 100 100 100 101 102 100 97 95 94 95 96 97 99 100 101 100 99 100 100 98 99 99 95 90 91 95 97 97 99 100 100 99 100 100 97 93 95 99 99 99 100 100 100 101 100 99 98 98 98 99 100 100 100 100 99 100 100 99 100
100 100 100 100 100 100 101 102 100 98 97 95 94 97 99 99 99 100 101 100 99 100 100 97 97 99 98 95 93 92 91 92 96 100 100 99 100 99 98 98 100 100 99 99 100 100 100 99 99 98 99 100 100 100 100 99 99 101 100 99 100 100 99
100 100 100 100 100 100 100 98 95 95 96 96 97 100 101 100 100 100 100 100 99 99 99 98 99 100 101 101 100 98 96 96 98 101 100 100 100 99 96 97 99 100 100 100 100 100 100 99 99 99 99 99 99 100 100 98 98 100 100 99 100 100 100
100 100 99 100 101 100 98 96 96 98 99 99 100 102 101 101 101 100 99 100 100 100 100 99 100 101 101 101 100 100 100 100 100 100 100 99 100 99 95 94 96 99 100 100 100 100 100 99 99 100 100 99 99 100 100 99 97 98 100 101 99 99 100
100 100 100 100 101 101 98 97 98 98 99 100 101 101 100 100 100 100 100 100 100 100 100 100 100 100 100 100 100 100 100 100 100 100 100 100 99 98 97 97 98 99 100 100 99 99 100 100 100 100 100 100 100 100 100 100 99 98 99 101 100 100 100
100 100 100 100 101 101 99 97 97 97 98 100 100 100 100 100 100 100 100 100 100 100 100 99 100 100 99 99 100 100 99 99 100 100 100 100 100 100 99 99 99 99 97 97 97 98 100 100 100 100 100 100 100 100 100 100 100 100 100 100 100 100 100
100 100 100 99 100 101 100 98 99 99 99 100 100 99 99 99 99 98 96 97 100 101 100 100 99 99 100 100 99 100 100 100 100 100 100 100 100 100 99 97 95 96 96 97 98 100 100 100 100 100 100 100 100 100 100 100 99 99 100 100 100 100 100
99 100 100 100 100 100 100 100 100 100 99 98 99 98 96 96 99 99 97 98 100 100 99 100 100 99 100 100 99 99 99 100 100 100 100 100 100 99 99 97 97 98 99 100 100 101 100 100 100 100 100 100 100 100 100 99 99 99 100 100 100 100 100
100 100 100 100 100 100 100 101 101 100 98 97 96 95 95 98 100 101 100 101 101 100 100 100 100 100 100 100 99 98 98 100 100 100 100 100 100 100 100 100 100 99 98 99 101 102 102 100 99 99 100 100 100 100 100 99 98 99 99 99 99 100 100
100 100 99 100 100 100 100 101 100 100 99 99 97 96 99 101 101 101 101 100 99 99 99 100 99 100 101 101 100 98 97 99 100 100 100 100 100 99 98 99 99 97 96 99 102 101 99 97 97 99 100 101 101 101 100 98 98 97 96 98 100 100 99